     2              Observation         GPS                 RINEX VERSION / TYPE
ASHTORIN USGS 23 - OCT - 92 13:38                           PGM / RUN BY / DATE
                                                            COMMENT
Original Marker Name: sbr2 Salisbury_No.2_1941_USCGS        COMMENT
Campaign Name: USGS-So. Cal. Monit                          COMMENT
4-Character Station Name: SBR2                              COMMENT
6-Character Antenna Code: ASHP12                            COMMENT
Vertical Measurement Point: EGP                             COMMENT
Vertical Offset to Rinex Ref. Point: 0.0593                 COMMENT
Radial Measurement Point: EGP                               COMMENT
Radial Offset to Rinex Ref. Point: 0.1425                   COMMENT
Antenna Height from Field Measurement: 1.3770 m             COMMENT
Additional Antenna Identification Info.:                    COMMENT
Ashtech L1/L2 Revision B                                    COMMENT
Revised Rinex header created by UCSD GPS archive for        COMMENT
SCEC DC on 21-Sep-1999 (1999.264) 23:21:03 GMT              COMMENT
For assistance contact dagnew@ucsd.edu or hjohnson@ucsd.edu COMMENT
                                                            COMMENT
SBR2 SALISBURY_NO.2_1941_USCGS                              MARKER NAME
                                                            MARKER NUMBER
JMS US GEOLOGICAL SURVEY                                    OBSERVER / AGENCY
104 ASHTECH L-XII 6M24                                      REC # / TYPE / VERS
068 ASHTECH GEODETIC P                                      ANT # / TYPE
 -2610614.4100 -4466246.9800  3719221.8000                  APPROX POSITION XYZ
        1.3103        0.0000        0.0000                  ANTENNA: DELTA H/E/N
     1     2     0                                          WAVELENGTH FACT L1/2
     4    L1    L2    C1    D1                              # / TYPES OF OBSERV
    30                                                      INTERVAL
  1992    10    19    18    55   30.000000                  TIME OF FIRST OBS
  1992    10    19    21    11    0.000000                  TIME OF LAST OBS
     9                                                      # OF SATELLITES
           3   272   272   272   272                        PRN / # OF OBS
          11    39    39    39    39                        PRN / # OF OBS
          16     1     1     1     1                        PRN / # OF OBS
          17   271   271   271   271                        PRN / # OF OBS
          20     2     2     2     2                        PRN / # OF OBS
          21   269   269   269   269                        PRN / # OF OBS
          23   269   269   269   269                        PRN / # OF OBS
          26   227   227   227   227                        PRN / # OF OBS
                                                            END OF HEADER
 92 10 19 18 55 30.0000000  0  1  3                                  0.000964270
   -214858.93618     -2736.31211  27778438.727         -74.076
 92 10 19 18 56  0.0000000  0  3  3 16 17                            0.000581120
        52.84717     -4356.36211  19084060.790         -65.176
    441233.47615    228386.05511  23597238.680        3304.870
  12950962.21718    -29605.49511  19231627.691        -420.572
 92 10 19 18 56 30.0000000  0  3 26  3 17                            0.000555300
   -320801.42317    -10708.29711  21534772.208        -163.451
     -1690.778 7     -5715.391 4  19383521.417         -49.987
  12938447.285 8    -39356.844 2  19529038.412        -412.484
 92 10 19 18 57  0.0000000  0  5 26  3 21 23 17                      0.000554060
   -325346.631 7    -14250.078 1  22733077.066        -139.251
     -2873.192 8     -6636.754 5  20582466.504         -28.493
  -3979414.74015   -196133.56811  24019716.136       -3343.804
  18097303.08017   -123824.74411  21133433.150       -1753.426
  12926285.161 8    -48833.759 1  20725893.812        -397.965
 92 10 19 18 57 30.0000000  0  5 26  3 21 23 17                      0.000551780
   -329144.492 6    -17208.291 4  22732354.087        -113.490
     -3381.892 8     -7033.130 6  20582369.922          -5.327
  -4079529.750 5   -274145.233 3  24000664.476       -3330.327
  18045029.106 7   -164554.490 2  21123485.506       -1731.292
  12914576.145 8    -57962.500 1  20723665.466        -382.419
 92 10 19 18 58  0.0000000  0  5 26  3 21 23 17                      0.000549660
   -332119.555 7    -19526.581 5  22731788.181         -87.371
     -3157.510 8     -6858.357 6  20582412.682          17.580
  -4179215.688 5   -351822.581 5  23981694.822       -3318.061
  17993452.965 7   -204732.880 1  21113671.160       -1709.504
  12903371.981 8    -66680.455 1  20721533.280        -367.120
 92 10 19 18 58 30.0000000  0  5 26  3 21 23 17                      0.000547680
   -334277.659 7    -21208.188 5  22731377.612         -57.901
     -2208.253 8     -6118.650 7  20582593.209          44.071
  -4278505.044 5   -429190.806 5  23962801.429       -3302.552
  17942573.614 7   -244375.470 1  21103988.913       -1683.969
  12892660.771 8    -75035.590 1  20719495.042        -348.495
 92 10 19 18 59  0.0000000  0  6 26  3 20 21 23 17                   0.000545890
   -335582.267 7    -22224.789 5  22731128.967         -29.147
      -505.483 8     -4791.806 7  20582917.352          69.213
   2246998.60716    265565.38411  24907102.823        3385.459
  -4377355.875 6   -506217.365 5  23943990.809       -3287.260
  17892421.690 7   -283457.040 1  21094445.288       -1659.461
  12882457.601 8    -82979.325 2  20717553.446        -331.850
 92 10 19 18 59 30.0000000  0  6 26  3 20 21 23 17                   0.000544250
   -336016.248 7    -22562.971 5  22731046.064           0.257
      1957.104 8     -2872.930 7  20583385.898          94.698
   2348667.334 5    344787.615 1  24926449.669        3392.435
  -4475725.481 5   -582868.956 5  23925270.891       -3270.603
  17843010.431 7   -321960.886 5  21085042.548       -1634.745
  12872749.912 8    -90552.069 1  20715706.075        -315.314
 92 10 19 19  0  0.0000000  0  5 26  3 21 23 17                      0.000542770
   -335574.791 7    -22218.996 5  22731130.076          28.996
      5181.033 7      -360.779 7  20583999.105         120.030
  -4573587.385 6   -659124.943 5  23906648.211       -3253.457
  17794336.595 7   -359888.512 6  21075780.310       -1610.088
  12863540.521 8    -97736.543 5  20713953.448        -298.594
 92 10 19 19  0 30.0000000  0  5 26  3 21 23 17                      0.000541550
   -334282.619 7    -21212.140 5  22731375.936          56.938
      9161.147 7      2740.604 7  20584756.371         144.920
  -4670931.622 6   -734977.529 5  23888125.097       -3236.325
  17746398.451 7   -397242.901 7  21066657.805       -1586.137
  12854828.215 8   -104525.362 6  20712295.564        -282.276
 92 10 19 19  1  0.0000000  0  5 26  3 21 23 17                      0.000540530
   -332173.470 7    -19568.673 5  22731777.196          83.128
     13873.962 7      6412.903 7  20585653.278         168.776
  -4767775.297 6   -810440.073 5  23869697.432       -3220.525
  17699155.944 7   -434055.218 7  21057667.840       -1563.694
  12846601.952 8   -110935.439 7  20710730.361        -266.429
 92 10 19 19  1 30.0000000  0  5 26  3 21 23 17                      0.000539670
   -329299.569 7    -17329.283 6  22732324.211         108.414
     19293.359 7     10635.813 7  20586684.547         192.425
  -4864170.644 6   -885553.281 5  23851353.431       -3206.081
  17652576.947 7   -470350.532 7  21048804.347       -1541.438
  12838841.157 8   -116982.818 8  20709253.470        -250.828
 92 10 19 19  2  0.0000000  0  5 26  3 21 23 17                      0.000538920
   -325681.660 7    -14510.154 6  22733013.013         132.502
     25418.357 7     15408.531 7  20587849.800         215.445
  -4960156.190 6   -960347.158 5  23833087.548       -3193.096
  17606662.996 7   -506127.605 8  21040066.914       -1519.772
  12831543.925 8   -122668.967 9  20707864.805        -236.045
 92 10 19 19  2 30.0000000  0  5 26  3 21 23 17                      0.000538280
   -321340.405 7    -11127.360 6  22733838.791         157.000
     32230.350 7     20716.556 7  20589145.969         238.563
  -5055757.115 6  -1034841.334 5  23814895.142       -3180.188
  17561387.919 7   -541406.863 8  21031451.278       -1498.588
  12824675.911 8   -128020.678 9  20706557.999        -221.716
 92 10 19 19  3  0.0000000  0  5 26  3 21 23 17                      0.000537740
   -316259.730 7     -7168.403 6  22734805.771         181.687
     39742.577 7     26570.243 7  20590575.181         262.030
  -5150972.847 6  -1109035.323 5  23796775.834       -3167.533
  17516749.578 7   -576189.951 8  21022956.811       -1477.272
  12818245.922 8   -133031.060 9  20705334.376        -207.041
 92 10 19 19  3 30.0000000  0  5 26  3 21 23 17                      0.000537310
   -310436.822 7     -2631.064 6  22735913.356         206.372
     47957.491 7     32971.461 7  20592138.429         285.190
  -5245803.228 6  -1182929.058 5  23778730.659       -3154.620
  17472756.139 7   -610470.527 8  21014585.163       -1455.891
  12812248.558 8   -137704.320 9  20704193.106        -192.912
 92 10 19 19  4  0.0000000  0  5 26  3 21 23 17                      0.000537000
   -303867.136 7      2488.178 6  22737163.878         231.917
     56863.006 8     39910.823 7  20593833.055         308.505
  -5340233.803 6  -1256511.228 5  23760761.219       -3140.375
  17429393.101 7   -644259.897 8  21006333.557       -1434.800
  12806683.904 8   -142040.418 9  20703134.637        -177.945
 92 10 19 19  4 30.0000000  0  5 26  3 21 23 17                      0.000536860
   -296517.114 7      8215.474 6  22738562.608         257.953
     66470.395 7     47397.088 7  20595661.330         331.585
  -5434227.649 6  -1329753.117 5  23742874.573       -3126.098
  17386666.376 7   -677553.414 8  20998202.866       -1413.627
  12801578.536 8   -146018.622 9  20702163.091        -162.325
 92 10 19 19  5  0.0000000  0  5 26  3 21 23 17                      0.000536900
   -288398.802 7     14541.457 6  22740107.721         283.260
     76757.081 7     55412.685 7  20597618.734         354.004
  -5527804.253 6  -1402669.857 5  23725067.248       -3112.264
  17344574.152 7   -710352.525 8  20990192.923       -1392.353
  12796936.440 8   -149635.831 9  20701279.765        -147.263
 92 10 19 19  5 30.0000000  0  5 26  3 21 23 17                      0.000537080
   -279517.483 7     21461.970 6  22741797.642         308.406
     87709.212 7     63946.800 7  20599703.012         375.601
  -5620963.855 6  -1475261.658 5  23707339.118       -3098.684
  17303124.468 7   -742650.941 8  20982305.303       -1371.413
  12792735.784 8   -152909.068 9  20700480.326        -133.015
 92 10 19 19  6  0.0000000  0  5 26  3 21 23 17                      0.000537420
   -269887.929 7     28965.543 6  22743630.201         333.534
     99308.467 7     72985.172 7  20601910.386         397.406
  -5713721.249 6  -1547540.024 5  23689687.830       -3085.384
  17262295.922 7   -774465.357 9  20974535.611       -1350.498
  12788961.070 8   -155850.385 9  20699762.134        -118.875
 92 10 19 19  6 30.0000000  0  5 26  3 21 23 17                      0.000537870
   -259516.522 7     37047.190 6  22745603.823         357.648
    111552.625 7     82526.059 7  20604240.092         418.620
  -5806105.565 6  -1619527.757 5  23672107.801       -3073.675
  17222093.376 7   -805791.998 9  20966884.999       -1329.759
  12785593.297 8   -158474.613 9  20699121.168        -105.682
 92 10 19 19  7  0.0000000  0  5 26  3 21 23 17                      0.000538410
   -248431.250 7     45685.088 6  22747713.146         381.258
    124435.624 7     92564.765 7  20606691.625         439.996
  -5898137.292 6  -1691240.720 5  23654594.657       -3061.950
  17182509.388 7   -836636.621 9  20959352.533       -1309.330
  12782611.265 8   -160798.265 9  20698553.578         -93.278
 92 10 19 19  7 30.0000000  0  5 26  3 21 23 17                      0.000539010
   -236655.180 7     54861.258 6  22749954.037         403.524
    137948.502 7    103094.261 7  20609263.244         460.379
  -5989836.112 6  -1762694.279 5  23637144.692       -3051.604
  17143510.861 7   -867025.056 9  20951931.498       -1290.944
  12779991.483 8   -162839.639 9  20698055.205         -81.539
 92 10 19 19  8  0.0000000  0  5 26  3 21 23 17                      0.000539680
   -224214.868 7     64555.046 6  22752321.246         425.921
    152068.005 7    114096.448 7  20611950.175         480.722
  -6081233.149 6  -1833912.677 5  23619751.927       -3041.455
  17105055.672 7   -896990.111 9  20944613.826       -1272.705
  12777717.405 8   -164611.633 9  20697622.522         -70.145
 92 10 19 19  8 30.0000000  0  5 26  3 21 23 17                      0.000540420
   -211109.389 7     74767.114 6  22754814.932         447.674
    166792.521 8    125570.081 7  20614752.204         500.720
  -6172324.834 6  -1904893.132 5  23602418.376       -3030.953
  17067143.096 7   -926532.360 9  20937399.440       -1254.804
  12775774.342 8   -166125.700 9  20697252.692         -59.359
 92 10 19 19  9  0.0000000  0  5 26  3 21 23 17                      0.000541230
   -197354.130 7     85485.538 6  22757432.739         469.404
    182115.179 7    137509.794 7  20617668.114         520.612
  -6263089.930 6  -1975619.082 5  23585146.852       -3020.053
  17029763.089 7   -955659.610 9  20930285.866       -1237.195
  12774149.999 8   -167391.405 9  20696943.625         -48.867
 92 10 19 19  9 30.0000000  0  5 26  3 21 23 17                      0.000542110
   -182945.019 7     96713.429 6  22760174.738         491.222
    198033.434 7    149913.608 7  20620697.208         540.353
  -6353520.456 6  -2046084.331 5  23567938.111       -3008.673
  16992907.971 7   -984377.848 9  20923272.778       -1219.834
  12772842.562 8   -168410.181 9  20696695.095         -38.342
 92 10 19 19 10  0.0000000  0  5 26  3 21 23 17                      0.000543090
   -167886.298 7    108447.479 6  22763040.367         512.601
    214544.067 7    162779.012 7  20623839.203         560.127
  -6443606.054 6  -2116280.853 5  23550794.773       -2997.050
  16956582.999 7  -1012683.000 9  20916360.264       -1201.810
  12771839.253 8   -169191.968 9  20696504.269         -28.527
 92 10 19 19 10 30.0000000  0  5 26  3 21 23 17                      0.000544130
   -152190.930 7    120677.647 6  22766027.456         533.675
    231649.089 7    176107.580 7  20627094.269         580.009
  -6533340.749 6  -2186203.931 5  23533719.034       -2985.271
  16920796.473 7  -1040568.580 9  20909550.200       -1183.884
  12771132.213 8   -169742.903 9  20696369.661         -18.512
 92 10 19 19 11  0.0000000  0  5 26  3 21 23 17                      0.000545250
   -135871.984 7    133393.728 6  22769133.037         554.361
    249342.614 7    189894.722 7  20630461.089         599.295
  -6622743.696 6  -2255868.457 5  23516706.822       -2975.009
  16885534.260 7  -1068045.586 9  20902839.796       -1166.888
  12770727.420 8   -170058.315 9  20696292.886          -8.453
 92 10 19 19 11 30.0000000  0  5 26  3 21 23 17                      0.000546400
   -118932.553 7    146593.274 6  22772356.246         575.174
    267610.264 7    204129.230 7  20633937.142         618.518
  -6711851.239 6  -2325302.857 5  23499749.885       -2965.471
  16850782.518 7  -1095124.849 9  20896226.722       -1149.690
  12770621.527 8   -170140.822 9  20696272.628           1.559
 92 10 19 19 12  0.0000000  0  5 26  3 21 23 17                      0.000547580
   -101374.481 7    160274.878 6  22775697.123         595.508
    286452.144 7    218811.184 7  20637522.712         637.504
  -6800682.998 6  -2394522.340 5  23482845.036       -2956.549
  16816549.422 7  -1121799.953 9  20889712.483       -1132.490
  12770816.009 8   -169989.281 9  20696309.503          11.603
 92 10 19 19 12 30.0000000  0  5 26  3 21 23 17                      0.000548800
    -83194.818 7    174440.870 6  22779156.365         616.513
    305865.309 7    233938.315 7  20641216.774         656.531
  -6889249.634 6  -2463535.212 5  23465991.613       -2947.902
  16782823.776 7  -1148079.643 9  20883294.896       -1115.827
  12771321.533 8   -169595.357 9  20696405.436          22.172
 92 10 19 19 13  0.0000000  0  5 26  3 21 23 17                      0.000550040
    -64391.815 7    189092.533 6  22782734.303         637.128
    325846.601 7    249508.119 7  20645019.139         675.375
  -6977562.964 6  -2532350.716 5  23449186.439       -2939.471
  16749603.312 7  -1173965.685 9  20876973.293       -1098.888
  12772141.429 8   -168956.466 9  20696561.369          32.356
 92 10 19 19 13 30.0000000  0  5 26  3 21 23 17                      0.000551320
    -44970.486 7    204226.034 6  22786430.043         657.420
    346394.627 7    265519.548 7  20648929.315         694.201
  -7065608.001 6  -2600957.161 5  23432431.575       -2930.173
  16716897.116 7  -1199451.002 9  20870749.472       -1081.775
  12773265.730 8   -168080.379 9  20696775.368          42.481
 92 10 19 19 14  0.0000000  0  5 26  3 21 23 17                      0.000552630
    -24939.223 7    219834.786 6  22790242.074         677.906
    367511.815 7    281974.481 7  20652947.954         713.286
  -7153356.405 6  -2669332.470 5  23415733.107       -2919.769
  16684699.261 7  -1224540.221 9  20864622.353       -1064.870
  12774694.495 8   -166967.057 9  20697047.392          52.767
 92 10 19 19 14 30.0000000  0  5 26  3 21 23 17                      0.000554010
     -4299.958 7    235917.324 6  22794169.215         697.948
    389197.930 7    298872.720 7  20657074.744         732.168
  -7240795.402 6  -2737466.696 5  23399093.255       -2909.606
  16653004.820 7  -1249237.169 9  20858590.677       -1047.999
  12776431.159 8   -165613.818 9  20697377.903          62.824
 92 10 19 19 15  0.0000000  0  5 26  3 21 23 17                      0.000555420
     16933.640 7    252462.981 6  22798210.138         717.796
    411445.844 7    316208.737 7  20661308.265         750.823
  -7327928.921 6  -2805362.849 5  23382512.552       -2899.218
  16621822.814 7  -1273534.800 9  20852656.805       -1030.993
  12778459.231 8   -164033.481 9  20697763.487          72.422
 92 10 19 19 15 30.0000000  0  5 26  3 21 23 17                      0.000556880
     38767.830 7    269476.632 6  22802365.161         737.912
    434250.558 7    333978.615 7  20665647.951         769.438
  -7414756.834 6  -2873020.865 5  23365990.559       -2889.196
  16591138.803 7  -1297444.397 9  20846818.107       -1014.499
  12780777.303 8   -162227.203 9  20698204.533          82.313
 92 10 19 19 16  0.0000000  0  6 26  3 28 21 23 17                   0.000558550
     61208.378 7    286962.756 6  22806635.615         758.195
    457612.092 7    352182.389 7  20670093.682         787.804
  15119458.59115   -469439.65412  24832553.269       -3534.410
  -7501297.928 6  -2940455.405 5  23349521.953       -2880.284
  16560945.651 7  -1320971.516 9  20841072.475        -998.180
  12783386.134 8   -160194.344 9  20698700.778          91.690
 92 10 19 19 16 30.0000000  0  6 26  3 28 21 23 17                   0.000560080
     84260.330 7    304925.298 6  22811022.406         778.615
    481529.318 7    370819.169 7  20674644.790         806.322
  15013483.382 5   -552017.600 3  24812387.293       -3530.559
  -7587573.321 6  -3007682.908 5  23333103.179       -2871.477
  16531250.932 7  -1344110.228 9  20835421.858        -981.552
  12786274.379 8   -157943.765 9  20699250.187         100.588
 92 10 19 19 17  0.0000000  0  6 26  3 28 21 23 17                   0.000561660
    107928.788 7    323368.253 6  22815526.280         799.330
    505998.791 7    389886.262 7  20679301.229         824.659
  14907622.930 5   -634506.196 3  24792242.360       -3527.100
  -7673585.234 6  -3074705.098 5  23316736.138       -2862.890
  16502046.869 7  -1366866.613 9  20829864.226        -965.680
  12789421.114 8   -155491.763 9  20699849.122         109.144
 92 10 19 19 17 30.0000000  0  6 26  3 28 21 23 17                   0.000563280
    132210.604 7    342289.150 6  22820147.202         819.330
    531012.243 7    409377.232 7  20684060.673         842.693
  14801846.624 5   -716929.109 3  24772113.601       -3524.706
  -7759348.620 6  -3141533.615 5  23300416.248       -2854.641
  16473299.560 7  -1389267.090 9  20824393.892        -950.761
  12792818.602 8   -152844.366 9  20700496.005         117.260
 92 10 19 19 18  0.0000000  0  6 26  3 28 21 23 17                   0.000564930
    157095.489 7    361679.967 6  22824882.365         839.627
    556572.743 7    429294.497 7  20688924.894         861.144
  14696143.373 5   -799295.197 3  24751998.910       -3522.042
  -7844854.367 6  -3208161.407 5  23284145.022       -2845.572
  16445005.127 7  -1411314.678 9  20819009.750        -935.448
  12796459.203 8   -150007.539 9  20701188.647         125.443
 92 10 19 19 18 30.0000000  0  6 26  3 28 21 23 17                   0.000566630
    182585.944 7    381542.667 6  22829732.845         859.562
    582687.223 7    449643.421 7  20693894.285         879.531
  14590528.411 5   -881592.464 3  24731901.152       -3518.965
  -7930078.558 6  -3274569.781 5  23267927.670       -2836.150
  16417164.738 7  -1433008.456 9  20813711.956        -920.768
  12800345.982 8   -146978.886 9  20701928.183         133.522
 92 10 19 19 19  0.0000000  0  6 26  3 28 21 23 17                   0.000568380
    208664.905 7    401863.939 6  22834695.401         879.011
    609350.163 7    470419.723 7  20698968.151         897.813
  14485005.002 5   -963818.348 3  24711821.170       -3516.154
  -8015027.994 6  -3340764.097 5  23251761.570       -2827.075
  16389760.869 7  -1454362.094 9  20808496.998        -906.206
  12804483.643 8   -143754.747 9  20702715.630         142.483
 92 10 19 19 19 30.0000000  0  6 26  3 28 21 23 17                   0.000570160
    235319.196 7    422633.525 6  22839767.209         897.910
    636565.653 7    491626.581 7  20704147.437         916.331
  14379564.933 5  -1045979.288 3  24691756.284       -3513.040
  -8099686.631 6  -3406731.756 5  23235652.173       -2816.885
  16362796.515 7  -1475373.255 9  20803365.740        -891.158
  12808895.244 8   -140317.139 9  20703554.997         151.642
 92 10 19 19 20  0.0000000  0  6 26  3 28 21 23 17                   0.000571970
    262536.511 7    443841.829 6  22844946.913         916.580
    664334.351 7    513264.499 7  20709431.580         934.699
  14274224.189 5  -1128062.911 4  24671710.322       -3509.551
  -8184047.389 6  -3472467.353 5  23219598.733       -2807.185
  16336295.949 7  -1496023.029 9  20798322.641        -875.441
  12813579.214 8   -136667.292 9  20704446.352         160.669
 92 10 19 19 20 30.0000000  0  6 26  3 28 21 23 17                   0.000573790
    290311.095 7    465484.367 6  22850231.926         935.052
    692653.591 7    535331.436 7  20714820.367         952.947
  14168989.494 5  -1210063.818 4  24651684.542       -3506.113
  -8268120.401 6  -3537978.708 5  23203599.962       -2797.772
  16310267.476 7  -1516304.943 9  20793369.388        -859.733
  12818536.200 8   -132804.698 9  20705389.608         169.773
 92 10 19 19 21  0.0000000  0  6 26  3 28 21 23 17                   0.000575620
    318643.463 7    487561.536 6  22855623.639         953.884
    721523.363 7    557827.341 7  20720314.415         971.650
  14063851.220 5  -1291989.586 4  24631677.405       -3503.082
  -8351905.647 6  -3603265.820 5  23187656.040       -2787.697
  16284723.810 7  -1536209.067 9  20788508.413        -843.053
  12823769.958 8   -128726.450 9  20706385.589         179.206
 92 10 19 19 21 30.0000000  0  6 26  3 28 21 23 17                   0.000577460
    347532.276 7    510072.302 6  22861121.543         972.104
    750945.007 7    580753.264 7  20725912.550         989.715
  13958804.614 5  -1373843.997 4  24611687.815       -3499.825
  -8435392.178 6  -3668320.211 5  23171768.958       -2778.284
  16259669.742 7  -1555731.692 9  20783740.853        -827.004
  12829265.164 8   -124444.488 9  20707431.254         187.097
 92 10 19 19 22  0.0000000  0  6 26  3 28 21 23 17                   0.000579330
    376981.285 7    533019.588 6  22866725.067         991.044
    780917.056 7    604108.094 7  20731616.131        1008.119
  13853870.855 5  -1455610.435 4  24591719.890       -3495.946
  -8518599.913 6  -3733157.310 5  23155935.209       -2768.977
  16235108.588 7  -1574870.239 9  20779067.241        -810.626
  12835000.544 8   -119975.375 9  20708522.597         195.124
 92 10 19 19 22 30.0000000  0  6 26  3 28 21 23 17                   0.000581220
    407002.265 7    556412.559 6  22872437.841        1010.144
    811438.705 7    627891.174 7  20737424.330        1026.410
  13749048.020 5  -1537290.380 4  24571771.996       -3492.253
  -8601528.901 6  -3797777.226 5  23140154.544       -2759.745
  16211033.009 7  -1593630.413 9  20774485.810        -794.431
  12840973.691 8   -115320.979 9  20709659.172         203.026
 92 10 19 19 23  0.0000000  0  6 26  3 28 21 23 17                   0.000583130
    437587.656 7    580245.343 6  22878258.370        1028.846
    842507.365 7    652100.498 7  20743336.557        1044.648
  13644338.991 5  -1618881.735 4  24551846.628       -3488.212
  -8684188.932 6  -3862187.542 5  23124424.705       -2751.078
  16187439.258 7  -1612015.138 9  20769996.021        -778.662
  12847183.139 8   -110482.445 9  20710840.742         210.911
 92 10 19 19 23 30.0000000  0  6 26  3 28 21 23 17                   0.000585070
    468741.115 7    604520.753 6  22884186.717        1048.081
    874124.731 7    676737.390 7  20749353.410        1062.986
  13539771.154 5  -1700363.013 4  24531948.115       -3482.948
  -8766593.207 6  -3926398.596 5  23108743.839       -2742.754
  16164316.357 7  -1630032.968 9  20765595.688        -762.891
  12853634.876 8   -105455.136 9  20712068.313         219.264
 92 10 19 19 24  0.0000000  0  6 26  3 28 21 23 17                   0.000587020
    500474.227 7    629247.833 6  22890224.928        1067.536
    906292.598 7    701803.242 7  20755474.743        1081.319
  13435353.320 5  -1781727.511 4  24512077.931       -3478.348
  -8848749.973 6  -3990416.777 5  23093109.813       -2734.267
  16141668.783 7  -1647680.409 9  20761285.880        -747.039
  12860348.494 8   -100223.745 9  20713345.837         228.444
 92 10 19 19 24 30.0000000  0  6 26  3 28 21 23 17                   0.000588990
    532792.458 7    654430.858 6  22896374.820        1086.742
    939014.559 7    727300.833 7  20761701.514        1099.726
  13331074.729 5  -1862983.377 5  24492233.961       -3473.715
  -8930649.630 6  -4054234.619 5  23077524.651       -2725.854
  16119494.657 7  -1664958.923 9  20757066.572        -731.511
  12867351.012 8    -94767.246 9  20714678.285         238.227
 92 10 19 19 25  0.0000000  0  6 26  3 28 21 23 17                   0.000590950
    565683.051 7    680059.870 6  22902633.646        1106.093
    972284.956 7    753225.783 7  20768032.280        1118.089
  13226931.693 5  -1944133.728 5  24472415.622       -3469.190
  -9012294.439 6  -4117853.877 5  23061987.629       -2717.045
  16097771.217 7  -1681886.273 9  20752932.973        -716.673
  12874644.739 8    -89083.830 9  20716066.266         247.932
 92 10 19 19 25 30.0000000  0  6 26  3 28 21 23 17                   0.000592950
    599163.142 7    706148.231 6  22909004.406        1125.858
   1006106.414 7    779580.155 7  20774468.504        1136.475
  13122920.071 5  -2025181.539 5  24452622.313       -3465.177
  -9093663.303 6  -4181258.100 5  23046503.566       -2707.490
  16076494.624 7  -1698465.404 9  20748884.316        -701.775
  12882222.325 8    -83179.223 9  20717508.248         257.179
 92 10 19 19 26  0.0000000  0  6 26  3 28 21 23 17                   0.000594980
    633228.936 7    732692.986 6  22915486.558        1145.255
   1040480.514 7    806365.136 7  20781009.917        1154.887
  13019017.407 5  -2106144.577 4  24432850.167       -3461.673
  -9174740.421 6  -4244434.982 5  23031074.420       -2697.514
  16055664.724 7  -1714696.484 9  20744920.251        -686.948
  12890077.436 8    -77058.360 9  20719002.972         266.371
 92 10 19 19 26 30.0000000  0  6 26  3 28 21 23 17                   0.000597040
    667869.234 7    759685.401 6  22922078.734        1163.995
   1075404.120 7    833578.292 7  20787655.806        1173.037
  12915214.504 5  -2187029.837 4  24413097.753       -3458.331
  -9255520.098 6  -4307380.091 5  23015702.920       -2687.837
  16035268.929 7  -1730589.297 9  20741038.809        -672.803
  12898195.969 8    -70732.231 9  20720547.995         274.705
 92 10 19 19 27  0.0000000  0  6 26  3 28 21 23 17                   0.000599140
    703070.877 7    787115.222 6  22928778.088        1182.858
   1110877.477 7    861219.844 7  20794405.774        1191.513
  12811517.249 5  -2267832.764 5  24393364.705       -3454.847
  -9336001.770 6  -4370092.967 5  23000387.714       -2677.745
  16015307.971 7  -1746143.281 9  20737240.198        -657.874
  12906559.209 8    -64215.433 9  20722139.270         282.657
 92 10 19 19 27 30.0000000  0  6 26  3 28 21 23 17                   0.000601280
    738843.264 7    814989.761 6  22935585.394        1201.071
   1146910.908 7    889297.816 7  20801262.165        1209.708
  12707929.559 5  -2348550.356 5  24373651.882       -3451.859
  -9416181.797 6  -4432570.840 6  22985129.977       -2668.459
  15995806.204 7  -1761339.441 9  20733528.925        -643.080
  12915168.391 8    -57506.980 9  20723777.270         290.662
 92 10 19 19 28  0.0000000  0  6 26  3 28 21 23 17                   0.000603400
    775138.827 7    843271.963 6  22942491.704        1218.712
   1183475.170 7    917789.418 7  20808220.378        1227.799
  12604427.911 5  -2429200.825 5  24353955.518       -3448.113
  -9496100.568 6  -4494845.109 6  22969921.735       -2659.344
  15976735.659 7  -1776199.594 9  20729900.068        -628.292
  12924013.501 8    -50614.689 9  20725460.432         298.991
 92 10 19 19 28 30.0000000  0  6 26  3 28 21 23 17                   0.000605530
    811971.244 7    871972.504 6  22949499.911        1236.663
   1220583.235 7    946704.750 7  20815282.050        1245.938
  12501047.856 5  -2509756.584 5  24334282.686       -3443.675
  -9575745.697 6  -4556906.156 5  22954765.597       -2650.354
  15958111.459 7  -1790711.948 9  20726355.723        -613.329
  12933110.965 8    -43525.769 9  20727191.924         307.521
 92 10 19 19 29  0.0000000  0  6 26  3 28 21 23 17                   0.000607660
    849343.896 6    901094.009 6  22956611.387        1254.945
   1258237.476 7    976045.697 7  20822447.410        1264.171
  12397806.589 5  -2590204.203 5  24314636.238       -3439.137
  -9655120.761 6  -4618756.787 5  22939661.342       -2641.386
  15939944.257 7  -1804868.189 9  20722898.795        -597.901
  12942460.950 8    -36240.072 9  20728971.301         315.732
 92 10 19 19 29 30.0000000  0  6 26  3 28 21 23 17                   0.000609810
    887265.359 7    930643.161 6  22963828.171        1273.110
   1296437.030 7   1005811.557 7  20829716.609        1282.338
  12294699.372 5  -2670547.322 5  24295015.639       -3434.620
  -9734231.715 6  -4680401.567 5  22924606.276       -2632.596
  15922229.213 7  -1818672.106 9  20719528.130        -583.122
  12952059.605 8    -28760.602 9  20730797.818         324.173
 92 10 19 19 30  0.0000000  0  6 26  3 28 21 23 17                   0.000611960
    925726.792 7    960613.051 6  22971147.696        1291.171
   1335180.425 7   1036001.179 7  20837089.201        1300.411
  12191733.638 5  -2750780.263 5  24275421.213       -3429.676
  -9813079.771 6  -4741841.501 5  22909602.032       -2623.895
  15904953.521 7  -1832133.675 9  20716240.624        -568.554
  12961901.194 8    -21091.831 9  20732670.510         331.850
 92 10 19 19 30 30.0000000  0  6 26  3 28 21 23 17                   0.000614140
    964738.730 6    991011.900 6  22978571.437        1309.528
   1374468.809 7   1066615.471 7  20844565.587        1318.632
  12088909.931 5  -2830902.491 5  24255854.830       -3425.132
  -9891666.532 6  -4803077.849 5  22894647.347       -2615.289
  15888122.993 7  -1845248.352 9  20713037.982        -553.414
  12971963.829 8    -13250.818 9  20734585.476         338.989
 92 10 19 19 31  0.0000000  0  6 26  3 28 21 23 17                   0.000616340
   1004298.953 7   1021838.001 6  22986099.315        1327.541
   1414304.745 7   1097656.429 7  20852146.070        1336.722
  11986218.314 5  -2910921.786 5  24236314.093       -3421.233
  -9969995.851 6  -4864113.612 5  22879741.974       -2606.837
  15871747.588 7  -1858008.381 9  20709921.870        -538.539
  12982241.513 8     -5242.253 9  20736541.224         346.012
 92 10 19 19 31 30.0000000  0  6 26  3 28 21 23 17                   0.000618540
   1044395.896 7   1053082.332 6  22993729.391        1345.503
   1454680.758 7   1129118.237 7  20859829.379        1354.846
  11883644.539 5  -2990849.269 5  24216795.193       -3416.890
 -10048065.095 6  -4924946.697 5  22864886.071       -2597.788
  15855812.512 7  -1870425.315 9  20706889.819        -523.736
  12992742.080 8      2940.007 9  20738539.398         354.119
 92 10 19 19 32  0.0000000  0  6 26  3 28 21 23 17                   0.000620740
   1085033.392 6   1084747.868 6  23001462.309        1363.645
   1495603.731 7   1161006.249 7  20867616.601        1373.178
  11781210.322 5  -3070667.960 5  24197302.566       -3411.965
 -10125855.428 6  -4985562.457 5  22850082.747       -2588.117
  15840331.198 7  -1882488.651 9  20703943.797        -508.190
  13003492.620 8     11317.036 9  20740585.163         362.623
 92 10 19 19 32 30.0000000  0  6 26  3 28 21 23 17                   0.000622950
   1126210.146 6   1116833.571 6  23009297.864        1381.524
   1537071.819 7   1193319.008 7  20875507.717        1391.208
  11678917.819 5  -3150376.276 5  24177837.011       -3407.491
 -10203355.282 6  -5045951.891 6  22835334.614       -2578.392
  15825313.383 7  -1894190.834 9  20701086.017        -493.106
  13014498.750 8     19893.231 9  20742679.882         371.287
 92 10 19 19 33  0.0000000  0  6 26  3 28 21 23 17                   0.000625180
   1167928.735 6   1149341.549 6  23017236.998        1399.761
   1579082.007 7   1226054.194 7  20883502.013        1409.341
  11576762.612 5  -3229977.590 5  24158397.190       -3402.721
 -10280554.911 6  -5106107.343 6  22820644.007       -2568.185
  15810737.481 7  -1905548.662 9  20698312.046        -478.681
  13025778.707 8     28682.799 9  20744826.426         380.769
 92 10 19 19 33 30.0000000  0  6 26  3 28 21 23 17                   0.000627420
   1210197.190 6   1182277.951 6  23025280.321        1417.982
   1621639.405 7   1259215.781 7  20891600.685        1427.511
  11474761.231 5  -3309459.032 5  24138987.469       -3397.419
 -10357442.284 6  -5166019.492 6  22806012.805       -2557.803
  15796592.340 7  -1916570.833 9  20695620.191        -464.480
  13037343.152 8     37694.048 9  20747027.004         389.837
 92 10 19 19 34  0.0000000  0  6 26  3 28 21 23 17                   0.000629700
   1253001.609 6   1215632.004 6  23033425.661        1435.638
   1664738.526 7   1292799.473 7  20899802.389        1445.614
  11372918.161 5  -3388817.153 5  24119607.750       -3392.164
 -10434023.823 6  -5225693.345 6  22791439.346       -2547.633
  15782872.878 7  -1927261.283 9  20693009.438        -450.213
  13049156.954 8     46899.606 9  20749274.987         397.632
 92 10 19 19 34 30.0000000  0  6 26  3 28 21 23 17                   0.000632010
   1296337.567 6   1249400.239 6  23041672.331        1453.402
   1708382.378 7   1326807.642 7  20908107.738        1463.716
  11271228.466 5  -3468055.697 5  24100256.741       -3387.153
 -10510307.508 6  -5285135.087 6  22776923.433       -2537.957
  15769576.980 7  -1937621.718 9  20690479.260        -436.289
  13061198.871 8     56282.897 9  20751566.520         405.070
 92 10 19 19 35  0.0000000  0  6 26  3 28 21 23 17                   0.000634350
   1340197.063 7   1283576.420 6  23050019.452        1470.344
   1752569.140 7   1361238.846 7  20916515.978        1481.808
  11169695.822 5  -3547171.881 5  24080935.465       -3381.658
 -10586305.509 6  -5344354.229 6  22762461.555       -2528.724
  15756704.534 7  -1947652.145 9  20688029.786        -421.783
  13073462.097 8     65838.654 9  20753900.073         412.268
 92 10 19 19 35 30.0000000  0  6 26  3 28 21 23 17                   0.000636700
   1384558.513 7   1318143.782 6  23058461.629        1487.165
   1797298.524 7   1396092.882 6  20925027.535        1499.948
  11068328.539 5  -3626159.195 5  24061645.679       -3376.090
 -10662028.991 6  -5403359.466 6  22748052.072       -2519.623
  15744276.396 7  -1957336.430 9  20685664.722        -406.681
  13085926.457 8     75551.136 9  20756271.931         418.676
 92 10 19 19 36  0.0000000  0  6 26  3 28 21 23 17                   0.000639050
   1429425.699 6   1353105.201 6  23066999.371        1504.340
   1842569.887 7   1431369.232 6  20933642.521        1518.058
  10967120.852 5  -3705022.165 5  24042386.134       -3371.010
 -10737488.001 6  -5462158.616 6  22733692.513       -2510.812
  15732304.823 7  -1966664.911 9  20683386.618        -391.300
  13098588.839 8     85417.906 9  20758681.566         425.885
 92 10 19 19 36 30.0000000  0  6 26  3 28 21 23 17                   0.000641390
   1474819.420 6   1388476.897 6  23075637.199        1521.943
   1888385.286 7   1467069.512 6  20942361.084        1536.135
  10866071.598 5  -3783761.669 5  24023157.046       -3365.518
 -10812684.511 6  -5520753.243 6  22719382.629       -2502.139
  15720794.212 7  -1975634.191 9  20681196.444        -376.007
  13111488.578 8     95469.649 9  20761136.306         434.279
 92 10 19 19 37  0.0000000  0  6 26  3 28 21 23 17                   0.000643720
   1520745.478 6   1424263.414 6  23084376.588        1539.882
   1934743.998 7   1503193.151 6  20951182.747        1554.270
  10765187.816 5  -3862372.253 5  24003959.028       -3360.006
 -10887611.825 6  -5579138.055 6  22705124.409       -2493.017
  15709742.443 7  -1984245.945 9  20679093.322        -360.850
  13124649.575 8    105724.970 9  20763640.660         443.110
 92 10 19 19 37 30.0000000  0  6 26  3 28 21 23 17                   0.000646050
   1567216.296 6   1460474.455 6  23093219.759        1558.111
   1981646.258 7   1539740.343 6  20960107.721        1572.284
  10664467.233 5  -3940855.640 5  23984792.232       -3354.607
 -10962266.206 6  -5637310.234 6  22690918.036       -2483.892
  15699131.321 7  -1992514.347 9  20677074.020        -346.671
  13138079.773 8    116190.061 9  20766196.381         452.362
 92 10 19 19 38  0.0000000  0  6 26  3 28 21 23 17                   0.000648370
   1614229.860 6   1497108.392 6  23102165.622        1576.114
   2029085.218 7   1576705.727 6  20969135.490        1590.242
  10563908.224 5  -4019213.144 5  23965655.613       -3349.090
 -11036649.166 6  -5695270.908 6  22676763.462       -2474.809
  15688939.091 7  -2000456.329 9  20675134.142        -332.655
  13151801.612 8    126882.406 9  20768807.523         462.615
 92 10 19 19 38 30.0000000  0  6 26  3 28 21 23 17                   0.000650680
   1661777.175 6   1534158.241 6  23111213.649        1593.542
   2077068.785 7   1614095.493 6  20978266.690        1608.432
  10463524.443 5  -4097434.091 5  23946552.778       -3343.101
 -11110751.708 6  -5753013.031 6  22662662.436       -2465.329
  15679168.940 7  -2008069.420 9  20673274.820        -318.757
  13165830.989 8    137814.395 9  20771477.396         472.377
 92 10 19 19 39  0.0000000  0  6 26  3 28 21 23 17                   0.000653000
   1709830.377 6   1571602.309 6  23120358.211        1609.366
   2125581.950 7   1651897.921 6  20987497.937        1624.959
  10363309.591 5  -4175523.430 5  23927482.382       -3338.495
 -11184587.723 6  -5810547.513 6  22648611.911       -2457.645
  15669793.344 7  -2015375.060 9  20671490.665        -306.868
  13180117.748 8    148946.938 9  20774196.113         479.401
 92 10 19 19 39 30.0000000  0  6 26  3 28 21 23 17                   0.000655290
   1758361.746 6   1609418.966 6  23129592.988        1626.146
   2174598.012 7   1690092.229 6  20996825.549        1642.736
  10263236.751 5  -4253502.062 5  23908439.325       -3332.853
 -11258187.558 7  -5867897.943 6  22634606.448       -2448.900
  15660787.563 7  -2022392.559 9  20669776.751        -293.243
  13194620.063 8    160247.441 9  20776955.923         487.506
 92 10 19 19 40  0.0000000  0  6 26  3 28 21 23 17                   0.000657600
   1807404.863 6   1647634.368 6  23138925.133        1643.448
   2224153.641 7   1728706.959 6  21006256.004        1660.879
  10163338.678 5  -4331344.549 5  23889429.761       -3327.129
 -11331511.279 6  -5925033.213 6  22620653.517       -2439.276
  15652204.182 7  -2029080.891 9  20668143.423        -278.942
  13209363.715 8    171736.013 9  20779761.700         495.294
 92 10 19 19 40 30.0000000  0  6 26  3 28 21 23 17                   0.000659930
   1856965.809 6   1686253.279 6  23148356.878        1660.593
   2274255.791 7   1767747.565 6  21015790.132        1678.986
  10063611.448 5  -4409053.924 5  23870452.509       -3321.374
 -11404538.285 6  -5981937.304 6  22606756.209       -2429.174
  15644047.307 7  -2035436.877 9  20666591.076        -264.923
  13224326.803 8    183395.557 9  20782609.277         502.092
 92 10 19 19 41  0.0000000  0  6 26  3 28 21 23 17                   0.000662290
   1907046.816 6   1725277.462 6  23157887.517        1678.038
   2324901.277 7   1807211.533 6  21025427.909        1697.108
   9964049.060 6  -4486634.832 5  23851506.046       -3316.192
 -11477260.556 6  -6038603.909 6  22592917.728       -2418.909
  15636308.940 7  -2041466.776 9  20665118.684        -250.989
  13239496.013 8    195215.719 9  20785495.631         509.308
 92 10 19 19 41 30.0000000  0  6 26  3 28 21 23 17                   0.000664690
   1957640.729 6   1764701.276 6  23167514.971        1694.898
   2376090.194 7   1847098.976 6  21035168.397        1715.292
   9864638.453 5  -4564097.510 5  23832588.841       -3311.126
 -11549667.976 6  -6095025.201 6  22579139.687       -2408.332
  15628992.132 7  -2047168.170 9  20663726.460        -236.850
  13254890.592 8    207211.499 9  20788425.063         516.981
 92 10 19 19 42  0.0000000  0  6 26  3 28 21 23 17                   0.000667100
   2008740.351 6   1804519.150 6  23177239.441        1711.544
   2427824.473 7   1887411.358 6  21045013.021        1733.387
   9765388.969 5  -4641434.535 5  23813702.110       -3305.457
 -11621761.586 6  -6151201.957 6  22565420.345       -2397.984
  15622089.202 7  -2052547.044 9  20662412.999        -223.404
  13270512.822 8    219384.660 9  20791397.964         524.395
 92 10 19 19 42 30.0000000  0  6 26  3 28 21 23 17                   0.000669540
   2060332.917 6   1844721.132 6  23187056.933        1728.026
   2480102.779 7   1928147.654 6  21054961.483        1751.548
   9666317.932 5  -4718632.626 5  23794848.988       -3299.146
 -11693556.830 6  -6207146.214 6  22551758.003       -2388.333
  15615588.514 7  -2057612.531 9  20661175.844        -209.951
  13286359.433 8    231732.674 9  20794413.667         532.053
 92 10 19 19 43  0.0000000  0  6 26  3 28 21 23 17                   0.000671990
   2112431.921 6   1885317.747 6  23196970.723        1745.294
   2532924.443 7   1969307.367 6  21065012.986        1769.759
   9567443.933 5  -4795677.133 5  23776033.970       -3292.351
 -11765062.775 7  -6262865.068 6  22538150.614       -2378.704
  15609500.792 7  -2062356.168 9  20660017.397        -195.906
  13302443.338 8    244265.592 9  20797474.478         540.283
 92 10 19 19 43 30.0000000  0  6 26  3 28 21 23 17                   0.000674460
   2165045.733 6   1926315.500 6  23206982.152        1762.374
   2586292.414 7   2010892.762 6  21075168.506        1787.988
   9468781.878 6  -4872556.471 5  23757259.680       -3284.894
 -11836284.988 6  -6318362.800 6  22524597.386       -2369.539
  15603844.597 7  -2066763.580 9  20658941.112        -181.151
  13318773.981 8    256990.783 9  20800582.217         548.438
 92 10 19 19 44  0.0000000  0  6 26  3 28 21 23 17                   0.000676930
   2218170.518 6   1967711.413 6  23217091.481        1779.270
   2640205.742 7   2052903.102 6  21085427.931        1806.079
   9370351.922 6  -4949255.038 5  23738529.209       -3277.057
 -11907234.621 6  -6373648.170 6  22511096.000       -2360.229
  15598630.659 7  -2070826.370 9  20657948.918        -166.387
  13335347.111 8    269904.897 9  20803735.874         556.542
 92 10 19 19 44 30.0000000  0  6 26  3 28 21 23 17                   0.000679410
   2271804.546 6   2009504.117 6  23227297.494        1796.546
   2694661.833 7   2095336.369 6  21095790.880        1824.170
   9272149.249 6  -5025776.423 5  23719841.817       -3269.812
 -11977893.525 6  -6428706.980 6  22497650.062       -2350.203
  15593862.248 7  -2074541.991 9  20657041.807        -151.561
  13352171.633 8    283014.920 9  20806937.317         565.329
 92 10 19 19 45  0.0000000  0  6 26  3 28 21 23 17                   0.000681890
   2325953.053 6   2051697.758 6  23237602.331        1813.156
   2749661.155 7   2138192.945 6  21106256.722        1842.163
   9174163.571 6  -5102128.734 5  23701195.735       -3262.706
 -12048249.300 6  -6483529.577 6  22484261.648       -2340.402
  15589532.569 7  -2077915.753 9  20656217.748        -137.249
  13369265.409 8    296334.739 9  20810189.995         574.087
 92 10 19 19 45 30.0000000  0  6 26  3 28 21 23 17                   0.000684360
   2380586.728 6   2094269.424 6  23247998.874        1829.025
   2805201.752 7   2181471.278 6  21116826.074        1860.339
   9076390.704 6  -5178315.262 5  23682589.703       -3255.464
 -12118317.155 6  -6538127.826 6  22470928.089       -2330.758
  15585627.569 7  -2080958.578 9  20655474.464        -123.228
  13386619.032 8    309857.057 9  20813492.249         582.799
 92 10 19 19 46  0.0000000  0  6 26  3 28 21 23 17                   0.000686840
   2435699.317 6   2137214.257 6  23258486.276        1845.235
   2861286.120 7   2225173.345 6  21127498.257        1878.484
   8978834.726 6  -5254332.767 5  23664025.264       -3248.316
 -12188086.143 6  -6592493.186 6  22457651.762       -2320.457
  15582128.866 7  -2083684.809 9  20654808.664        -110.043
  13404233.242 8    323582.420 9  20816844.090         591.500
 92 10 19 19 46 30.0000000  0  6 26  3 28 21 23 17                   0.000689340
   2491302.521 6   2180541.413 6  23269067.601        1861.737
   2917912.536 7   2269297.773 6  21138274.127        1896.484
   8881481.932 6  -5330191.892 5  23645499.640       -3241.865
 -12257556.780 6  -6646626.068 6  22444431.764       -2311.087
  15579022.719 7  -2086105.166 9  20654217.572         -96.961
  13422104.208 8    337507.839 9  20820244.606         600.014
 92 10 19 19 47  0.0000000  0  6 26  3 28 21 23 17                   0.000691830
   2547398.609 6   2224252.613 6  23279742.100        1878.089
   2975079.578 7   2313843.475 6  21149152.807        1914.501
   8784334.386 6  -5405891.136 5  23627013.198       -3234.764
 -12326753.933 7  -6700545.848 6  22431263.758       -2302.016
  15576313.391 7  -2088216.325 9  20653702.279         -83.390
  13440223.993 8    351627.160 9  20823692.466         607.915
 92 10 19 19 47 30.0000000  0  6 26  3 28 21 23 17                   0.000694330
   2603992.234 6   2268351.530 6  23290511.604        1894.936
   3032787.516 7   2358810.655 6  21160134.163        1932.547
   8687394.165 6  -5481428.787 5  23608566.062       -3227.968
 -12395671.977 7  -6754248.134 6  22418149.108       -2292.348
  15574021.262 7  -2090002.384 9  20653266.132         -69.396
  13458583.109 8    365932.951 9  20827186.149         616.054
 92 10 19 19 48  0.0000000  0  6 26  3 28 21 23 17                   0.000696840
   2661098.510 6   2312849.896 6  23301378.384        1912.208
   3091037.161 7   2404199.955 6  21171218.560        1950.563
   8590657.724 6  -5556807.689 5  23590157.543       -3221.200
 -12464288.605 7  -6807715.561 6  22405091.918       -2282.229
  15572147.415 7  -2091462.511 9  20652909.397         -55.458
  13477188.080 8    380430.331 9  20830726.449         624.311
 92 10 19 19 48 30.0000000  0  6 26  3 28 21 23 17                   0.000699370
   2718717.160 6   2357747.549 6  23312342.401        1928.872
   3149829.354 7   2450012.005 6  21182406.755        1968.661
   8494124.739 6  -5632028.009 5  23571787.999       -3214.189
 -12532606.891 7  -6860950.484 6  22392091.068       -2272.291
  15570699.631 7  -2092590.640 9  20652633.979         -41.043
  13496045.815 8    395124.666 9  20834314.983         632.981
 92 10 19 19 49  0.0000000  0  6 26  3 28 21 23 17                   0.000701890
   2776823.168 6   2403024.923 6  23323399.714        1944.693
   3209164.036 7   2496246.786 6  21193697.839        1986.684
   8397815.001 6  -5707074.401 5  23553460.567       -3206.614
 -12600617.682 7  -6913945.823 6  22379149.127       -2261.774
  15569681.783 7  -2093383.759 9  20652440.255         -26.795
  13515162.335 8    410020.652 9  20837952.717         641.258
 92 10 19 19 49 30.0000000  0  6 26  3 28 21 23 17                   0.000704410
   2835400.779 6   2448669.791 6  23334546.949        1960.369
   3269038.447 7   2542902.121 6  21205091.419        2004.733
   8301728.947 6  -5781946.497 5  23535176.125       -3198.885
 -12668305.798 7  -6966689.711 6  22366268.568       -2250.795
  15569086.185 7  -2093847.838 9  20652327.133         -13.057
  13534530.081 8    425112.409 9  20841638.143         649.961
 92 10 19 19 50  0.0000000  0  6 26  3 28 21 23 17                   0.000706950
   2894438.936 6   2494673.535 6  23345781.780        1975.495
   3329450.371 7   2589976.302 6  21216587.354        2022.592
   8205883.194 6  -5856631.308 5  23516937.401       -3190.725
 -12735670.398 7  -7019181.540 6  22353449.088       -2240.277
  15568897.739 7  -2093994.677 9  20652290.988           0.757
  13554151.762 8    440402.029 9  20845372.099         658.352
 92 10 19 19 50 30.0000000  0  6 26  3 28 21 23 17                   0.000709480
   2953926.863 6   2541027.752 6  23357102.074        1990.524
   3390401.488 7   2637470.639 6  21228186.012        2040.693
   8110284.568 6  -5931123.581 5  23498745.114       -3182.404
 -12802726.617 7  -7071433.040 6  22340689.152       -2229.925
  15569133.093 7  -2093811.284 9  20652335.545          15.099
  13574025.605 8    455888.140 9  20849154.080         666.655
 92 10 19 19 51  0.0000000  0  6 26  3 28 21 23 17                   0.000712010
   3013875.865 6   2587741.257 6  23368510.188        2006.250
   3451893.066 7   2685386.105 6  21239887.421        2058.685
   8014938.297 6  -6005419.202 5  23480601.078       -3174.078
 -12869462.116 7  -7123434.625 6  22327989.315       -2219.060
  15569798.091 7  -2093293.090 9  20652462.139          29.252
  13594146.421 8    471566.692 9  20852982.960         674.702
 92 10 19 19 51 30.0000000  0  6 26  3 28 21 23 17                   0.000714550
   3074302.650 6   2634827.042 6  23380008.849        2022.365
   3513921.120 7   2733719.621 6  21251690.979        2076.491
   7919833.538 6  -6079526.625 5  23462503.251       -3165.909
 -12935876.568 7  -7175186.070 6  22315350.804       -2208.548
  15570879.122 7  -2092450.714 9  20652667.935          42.868
  13614506.407 8    487431.611 9  20856857.459         682.798
 92 10 19 19 52  0.0000000  0  6 26  3 28 21 23 17                   0.000717120
   3135213.888 6   2682290.311 6  23391599.684        2038.509
   3576484.895 7   2782470.589 6  21263596.528        2094.281
   7824978.349 6  -6153439.644 5  23444452.533       -3157.863
 -13001986.118 7  -7226699.918 6  22302770.823       -2198.800
  15572371.920 7  -2091287.478 9  20652951.948          56.668
  13635105.361 8    503482.744 9  20860777.383         690.533
 92 10 19 19 52 30.0000000  0  6 26  3 28 21 23 17                   0.000719710
   3196619.299 6   2730138.677 6  23403285.112        2055.326
   3639585.398 7   2831639.757 6  21275604.316        2112.236
   7730363.986 6  -6227164.974 5  23426447.747       -3149.552
 -13067801.300 7  -7277984.381 6  22290246.785       -2188.822
  15574266.105 7  -2089811.481 9  20653312.180          69.432
  13655943.261 8    519720.060 9  20864742.779         698.685
 92 10 19 19 53  0.0000000  0  6 26  3 28 21 23 17                   0.000722340
   3258531.705 6   2778382.091 6  23415066.624        2072.025
   3703222.516 7   2881227.090 6  21287713.833        2130.088
   7636006.777 6  -6300689.877 5  23408491.938       -3140.812
 -13133313.058 7  -7329032.416 6  22277780.684       -2178.808
  15576524.943 7  -2088051.332 9  20653742.220          81.165
  13677031.284 8    536152.293 9  20868755.710         707.141
 92 10 19 19 53 30.0000000  0  6 26  3 28 21 23 17                   0.000725020
   3320936.858 6   2827009.447 6  23426941.736        2088.199
   3767394.144 7   2931230.910 6  21299925.237        2147.800
   7541911.774 6  -6374010.544 5  23390586.025       -3132.138
 -13198539.386 7  -7379858.046 6  22265368.138       -2169.672
  15579139.911 7  -2086013.695 9  20654239.537          93.137
  13698371.503 8    552781.023 9  20872816.800         715.461
 92 10 19 19 54  0.0000000  0  6 26  3 28 21 23 17                   0.000727730
   3383830.771 6   2876017.662 6  23438909.951        2104.596
   3832098.428 7   2981649.791 6  21312238.155        2165.679
   7448079.251 6  -6447126.627 5  23372729.637       -3123.371
 -13263487.566 7  -7430466.951 6  22253008.323       -2160.050
  15582119.467 7  -2083691.942 9  20654806.595         105.490
  13719959.341 8    569602.707 9  20876924.987         723.899
 92 10 19 19 54 30.0000000  0  6 26  3 28 21 23 17                   0.000730480
   3447212.254 6   2925405.796 6  23450971.089        2120.697
   3897338.921 7   3032486.479 6  21324653.249        2183.507
   7354510.559 6  -6520037.184 5  23354923.843       -3114.553
 -13328134.915 7  -7480841.413 6  22240706.259       -2149.759
  15585472.700 7  -2081079.016 9  20655444.882         118.169
  13741808.068 8    586627.689 9  20881082.607         732.688
 92 10 19 19 55  0.0000000  0  6 26  3 28 21 23 17                   0.000733240
   3511065.505 6   2975161.528 6  23463122.128        2136.218
   3963112.193 7   3083738.324 6  21337169.456        2201.211
   7261197.135 6  -6592748.787 5  23337167.154       -3106.411
 -13392474.442 7  -7530976.037 6  22228462.716       -2139.482
  15589219.014 7  -2078159.795 9  20656157.688         131.866
  13763912.111 8    603851.627 9  20885288.845         740.904
 92 10 19 19 55 30.0000000  0  6 26  3 28 21 23 17                   0.000735980
   3575382.655 6   3025278.718 6  23475361.454        2151.621
   4029417.060 7   3135404.401 6  21349786.451        2218.852
   7168117.395 6  -6665278.340 5  23319454.457       -3098.895
 -13456508.702 7  -7580872.776 6  22216277.370       -2129.310
  15593399.034 7  -2074902.629 9  20656953.099         146.684
  13786257.711 8    621263.779 9  20889541.233         748.782
 92 10 19 19 56  0.0000000  0  6 26  3 28 21 23 17                   0.000738710
   3640165.786 6   3075759.025 6  23487689.591        2167.157
   4096252.402 7   3187483.842 6  21362504.674        2236.610
   7075271.935 6  -6737625.308 5  23301786.459       -3090.877
 -13520227.921 7  -7630524.030 6  22204152.335       -2118.708
  15598012.852 7  -2071307.434 9  20657830.962         160.856
  13808851.337 8    638869.199 9  20893840.384         757.616
 92 10 19 19 56 30.0000000  0  6 26  3 28 21 23 17                   0.000741410
   3705406.054 6   3126595.546 6  23500104.458        2182.340
   4163616.863 7   3239975.580 6  21375323.802        2254.248
   6982666.424 6  -6809785.313 5  23284164.359       -3082.847
 -13583642.000 7  -7679937.530 6  22192084.600       -2108.868
  15603046.304 7  -2067385.248 9  20658788.588         174.758
  13831714.398 8    656684.562 9  20898190.994         766.563
 92 10 19 19 57  0.0000000  0  6 26  3 28 21 23 17                   0.000744100
   3771108.726 6   3177792.356 6  23512606.772        2197.815
   4231510.623 7   3292879.740 6  21388243.496        2271.911
   6890304.252 6  -6881755.711 5  23266588.457       -3074.368
 -13646757.141 7  -7729118.076 6  22180073.924       -2098.761
  15608491.147 7  -2063142.491 9  20659825.019         188.312
  13854841.707 8    674705.846 9  20902592.097         775.368
 92 10 19 19 57 30.0000000  0  6 26  3 28 21 23 17                   0.000746770
   3837265.191 6   3229342.766 6  23525195.395        2212.620
   4299935.137 7   3346197.505 6  21401264.083        2289.544
   6798210.651 6  -6953516.818 5  23249063.378       -3065.030
 -13709570.385 7  -7778063.380 6  22168121.158       -2088.652
  15614339.328 7  -2058585.441 9  20660937.990         201.435
  13878241.855 8    692939.728 9  20907044.886         784.638
 92 10 19 19 58  0.0000000  0  6 26  3 28 21 23 17                   0.000749450
   3903857.592 6   3281232.890 6  23537867.733        2226.719
   4368886.877 7   3399926.076 6  21414385.100        2306.961
   6706403.646 6  -7025054.609 5  23231593.073       -3055.575
 -13772079.205 7  -7826771.456 6  22156226.163       -2078.733
  15620566.079 7  -2053733.409 9  20662122.920         213.810
  13901922.718 8    711392.344 9  20911551.154         793.889
 92 10 19 19 58 30.0000000  0  6 26  3 28 21 23 17                   0.000752110
   3970869.014 6   3333449.533 6  23550619.505        2240.689
   4438362.490 7   3454062.877 6  21427606.105        2324.426
   6614880.387 6  -7096371.291 5  23214177.029       -3045.969
 -13834286.912 7  -7875244.920 6  22144388.479       -2068.419
  15627181.819 7  -2048578.264 9  20663381.879         227.185
  13925867.917 8    730050.931 9  20916107.898         802.230
 92 10 19 19 59  0.0000000  0  6 26  3 28 21 23 17                   0.000754770
   4038293.909 6   3385988.369 6  23563450.223        2254.233
   4508360.357 7   3508606.641 6  21440926.516        2341.805
   6523646.710 6  -7167462.353 5  23196815.698       -3036.159
 -13896181.511 7  -7923474.399 6  22132610.232       -2057.972
  15634198.900 7  -2043110.389 9  20664716.973         240.829
  13950055.529 8    748898.432 9  20920710.573         810.333
 92 10 19 19 59 30.0000000  0  6 26  3 28 21 23 17                   0.000757400
   4106127.896 6   3438845.976 6  23576358.824        2268.235
   4578880.960 7   3563557.704 6  21454346.066        2359.319
   6432712.906 6  -7238319.758 5  23179511.378       -3026.245
 -13957764.577 7  -7971461.116 7  22120891.067       -2047.597
  15641632.892 7  -2037317.647 9  20666131.505         254.664
  13974493.057 8    767940.672 9  20925360.694         818.602
 92 10 19 20  0  0.0000000  0  6 26  3 28 21 23 17                   0.000760040
   4174393.976 6   3492040.285 6  23589349.872        2283.032
   4649924.802 7   3618916.510 6  21467865.566        2376.744
   6342073.831 6  -7308947.441 5  23162263.460       -3016.436
 -14019041.128 7  -8019209.004 7  22109230.498       -2037.438
  15649471.684 7  -2031209.469 9  20667623.063         267.914
  13999171.929 8    787170.964 9  20930056.674         826.596
 92 10 19 20  0 30.0000000  0  6 26  3 28 21 23 17                   0.000762690
   4243117.149 6   3545590.745 6  23602427.450        2298.612
   4721492.173 7   3674683.249 6  21481484.828        2394.116
   6251726.547 6  -7379347.803 5  23145071.060       -3006.624
 -14080010.296 7  -8066717.366 7  22097628.509       -2027.296
  15657703.730 7  -2024794.873 9  20669189.408         280.460
  14024086.840 8    806585.192 9  20934798.021         834.344
 92 10 19 20  1  0.0000000  0  6 26  3 28 21 23 17                   0.000765390
   4312314.653 6   3599510.840 6  23615595.464        2314.431
   4793581.985 7   3730857.073 6  21495203.071        2411.485
   6161682.389 6  -7449511.957 5  23127936.081       -2996.435
 -14140676.793 7  -8113989.884 7  22086084.173       -2017.221
  15666293.390 7  -2018101.624 9  20670824.057         292.037
  14049239.669 8    826184.793 9  20939584.676         842.427
 92 10 19 20  1 30.0000000  0  6 26  3 28 21 23 17                   0.000768160
   4381987.060 6   3653801.001 6  23628853.945        2330.324
   4866193.063 7   3787437.078 6  21509020.495        2428.876
   6071940.805 6  -7519440.363 5  23110858.684       -2986.450
 -14201041.283 7  -8161027.065 7  22074597.185       -2007.184
  15675217.791 8  -2011147.522 9  20672522.580         302.623
  14074636.760 8    845974.734 9  20944417.442         850.508
 92 10 19 20  2  0.0000000  0  6 26  3 28 21 23 17                   0.000770990
   4452132.951 6   3708460.081 6  23642202.263        2345.962
   4939323.447 7   3844421.733 6  21522936.950        2446.236
   5982495.572 6  -7589137.839 5  23093837.670       -2976.533
 -14261110.186 7  -8207833.933 7  22063166.338       -1997.317
  15684452.830 7  -2003951.387 9  20674279.953         313.155
  14100272.384 8    865950.535 9  20949295.734         858.546
 92 10 19 20  2 30.0000000  0  6 26  3 28 21 23 17                   0.000773880
   4522737.635 6   3763476.691 6  23655637.932        2360.822
   5012973.547 7   3901811.375 6  21536952.119        2463.543
   5893350.363 6  -7658601.486 5  23076873.223       -2966.462
 -14320878.090 7  -8254406.240 7  22051792.680       -1987.369
  15694015.100 7  -1996500.245 9  20676099.533         324.397
  14126150.075 8    886114.962 9  20954220.114         866.693
 92 10 19 20  3  0.0000000  0  6 26  3 28 21 23 17                   0.000776790
   4593775.305 6   3818830.696 6  23669156.155        2374.895
   5087140.002 7   3959603.349 6  21551065.428        2480.656
   5804503.309 6  -7727832.842 5  23059965.729       -2956.903
 -14380350.582 7  -8300748.363 7  22040475.255       -1977.351
  15703925.351 7  -1988777.967 9  20677985.418         336.552
  14152275.955 8    906472.794 9  20959191.932         875.085
 92 10 19 20  3 30.0000000  0  6 26  3 28 21 23 17                   0.000779690
   4665236.561 6   3874514.738 6  23682754.312        2389.134
   5161822.300 7   4017797.300 6  21565277.338        2498.036
   5715939.896 6  -7796843.170 5  23043112.676       -2947.322
 -14439514.689 7  -8346850.176 7  22029216.760       -1966.938
  15714214.704 8  -1980760.279 9  20679943.603         349.589
  14178660.773 8    927032.377 9  20964212.837         883.869
 92 10 19 20  4  0.0000000  0  6 26  3 28 21 23 17                   0.000782580
   4737118.360 6   3930526.527 5  23696433.528        2402.872
   5237021.356 7   4076393.900 6  21579587.262        2515.048
   5627658.997 6  -7865633.364 5  23026313.534       -2937.918
 -14498363.751 7  -8392706.519 7  22018018.204       -1956.187
  15724907.982 8  -1972427.850 9  20681978.634         363.267
  14205302.623 8    947792.254 9  20969282.777         892.281
 92 10 19 20  4 30.0000000  0  6 26  3 28 21 23 17                   0.000785440
   4809413.389 6   3986860.280 5  23710191.235        2416.806
   5312732.336 7   4135389.416 6  21593994.878        2532.187
   5539665.189 6  -7934199.869 5  23009568.605       -2928.239
 -14556885.360 7  -8438307.691 7  22006881.922       -1945.302
  15736011.864 7  -1963775.465 9  20684091.501         376.997
  14232204.053 8    968754.396 9  20974402.094         901.194
 92 10 19 20  5  0.0000000  0  6 26  3 28 21 23 17                   0.000788290
   4882130.996 6   4043523.333 5  23724029.187        2430.956
   5388956.888 7   4194785.095 6  21608499.847        2549.292
   5451962.204 6  -8002539.736 5  22992879.570       -2918.559
 -14615075.395 7  -8483650.496 7  21995808.788       -1933.962
  15747525.396 7  -1954803.883 9  20686282.505         390.521
  14259370.156 8    989922.782 9  20979571.655         909.886
 92 10 19 20  5 30.0000000  0  6 26  3 28 21 23 17                   0.000791130
   4955270.699 6   4100515.282 5  23737946.801        2444.882
   5465696.918 7   4254582.467 6  21623102.787        2566.403
   5364560.530 6  -8070644.852 5  22976247.603       -2908.067
 -14672924.731 7  -8528727.835 7  21984800.459       -1922.814
  15759439.218 7  -1945520.369 9  20688549.484         403.675
  14286793.865 8   1011291.912 9  20984790.113         918.223
 92 10 19 20  6  0.0000000  0  6 26  3 28 21 23 17                   0.000793970
   5028822.980 6   4157828.717 5  23751943.352        2458.607
   5542950.333 7   4314779.868 6  21637803.569        2583.484
   5277482.238 6  -8138497.942 5  22959676.747       -2897.165
 -14730441.705 7  -8573546.180 7  21973855.355       -1911.803
  15771745.872 7  -1935930.747 9  20690891.454         416.512
  14314466.842 8   1032855.264 9  20990056.326         926.603
 92 10 19 20  6 30.0000000  0  6 26  3 28 21 23 17                   0.000796830
   5102791.878 6   4215466.783 5  23766019.079        2472.431
   5620714.588 7   4375375.312 6  21652601.647        2600.545
   5190734.601 6  -8206093.401 5  22943169.004       -2886.167
 -14787637.547 7  -8618114.307 7  21962971.043       -1901.402
  15784430.397 7  -1926046.704 9  20693305.153         429.055
  14342393.004 8   1054615.927 9  20995370.658         935.067
 92 10 19 20  7  0.0000000  0  6 26  3 28 21 23 17                   0.000799690
   5177157.374 6   4273413.905 5  23780169.930        2485.246
   5698986.305 7   4436366.200 6  21667496.315        2617.450
   5104314.860 6  -8273433.339 5  22926724.169       -2875.176
 -14844521.092 7  -8662439.061 7  21952146.184       -1890.828
  15797484.622 7  -1915874.562 9  20695789.113         441.115
  14370565.523 8   1076568.525 9  21000731.527         943.182
 92 10 19 20  7 30.0000000  0  6 26  3 28 21 23 17                   0.000802560
   5251906.475 6   4331659.929 5  23794394.026        2498.136
   5777763.636 7   4497751.071 6  21682486.975        2634.117
   5018226.281 6  -8340515.245 5  22910342.260       -2864.064
 -14901094.715 7  -8706522.345 7  21941380.427       -1880.869
  15810893.051 7  -1905426.457 9  20698340.397         452.679
  14398987.022 8   1098715.155 9  21006139.622         951.630
 92 10 19 20  8  0.0000000  0  6 26  3 28 21 23 17                   0.000805430
   5327052.510 6   4390215.224 5  23808694.103        2511.707
   5857044.527 7   4559528.323 5  21697573.595        2650.987
   4932468.433 6  -8407339.414 5  22894022.927       -2853.101
 -14957373.203 7  -8750375.628 7  21930671.042       -1871.092
  15824645.830 7  -1894709.986 9  20700957.665         464.043
  14427667.643 8   1121063.686 9  21011597.065         960.429
 92 10 19 20  8 30.0000000  0  6 26  3 28 21 23 17                   0.000808310
   5402607.799 6   4449089.445 5  23823071.690        2525.278
   5936827.332 7   4621696.685 5  21712755.232        2667.725
   4847044.192 6  -8473903.646 5  22877766.970       -2841.754
 -15013360.505 7  -8794002.024 7  21920016.529       -1861.304
  15838741.469 7  -1883726.350 9  20703640.067         475.777
  14456610.149 8   1143616.308 9  21017104.500         969.237
 92 10 19 20  9  0.0000000  0  6 26  3 28 21 23 17                   0.000811200
   5478566.660 6   4508278.111 5  23837526.005        2538.969
   6017110.185 7   4684254.684 5  21728033.065        2684.384
   4761958.451 6  -8540204.116 5  22861575.650       -2830.503
 -15069051.721 7  -8837397.718 7  21909419.015       -1851.293
  15853189.846 7  -1872467.858 9  20706389.696         487.651
  14485815.934 8   1166374.051 9  21022662.113         978.009
 92 10 19 20  9 30.0000000  0  6 26  3 28 21 23 17                   0.000814090
   5554950.317 6   4567797.825 6  23852061.204        2553.382
   6097892.292 7   4747201.719 5  21743405.544        2700.940
   4677211.476 6  -8606240.626 5  22845448.624       -2819.080
 -15124446.797 7  -8880562.634 7  21898877.544       -1841.632
  15868005.188 7  -1860923.438 9  20709209.012         500.261
  14515290.709 8   1189341.420 9  21028270.872         987.072
 92 10 19 20 10  0.0000000  0  6 26  3 28 21 23 17                   0.000816980
   5631768.517 6   4627656.108 6  23866679.469        2567.734
   6179175.926 7   4810539.560 5  21758873.625        2717.709
   4592817.565 6  -8672002.027 5  22829389.223       -2807.215
 -15179542.879 7  -8923494.581 7  21888392.901       -1831.373
  15883216.120 7  -1849070.754 9  20712103.521         513.783
  14545035.321 8   1212519.032 9  21033931.072         995.879
 92 10 19 20 10 30.0000000  0  6 26  3 28 21 23 17                   0.000819860
   5709006.259 6   4687841.329 6  23881377.616        2581.390
   6260959.598 7   4874267.026 5  21774436.482        2734.341
   4508775.523 6  -8737489.216 5  22813396.804       -2795.652
 -15234325.181 7  -8966182.019 7  21877968.309       -1820.677
  15898830.976 7  -1836903.331 9  20715074.899         527.181
  14575044.990 8   1235903.181 9  21039641.558        1004.778
 92 10 19 20 11  0.0000000  0  6 26  3 28 21 23 17                   0.000822740
   5786656.293 6   4748347.805 6  23896154.297        2595.209
   6343240.281 7   4938381.794 5  21790094.282        2750.794
   4425074.052 6  -8802711.059 5  22797468.771       -2784.425
 -15288782.413 7  -9008616.177 7  21867605.373       -1809.832
  15914840.987 7  -1824427.991 9  20718121.182         540.038
  14605318.758 8   1259493.140 9  21045402.631        1013.365
 92 10 19 20 11 30.0000000  0  6 26  3 28 21 23 17                   0.000825620
   5864714.933 6   4809172.656 6  23911007.964        2608.478
   6426013.933 7   5002880.684 5  21805845.628        2767.153
   4341714.319 6  -8867666.597 5  22781605.404       -2772.881
 -15342916.450 7  -9050798.473 7  21857304.063       -1799.122
  15931223.430 7  -1811662.416 9  20721238.666         551.981
  14635845.227 8   1283280.002 9  21051211.688        1021.711
 92 10 19 20 12  0.0000000  0  6 26  3 28 21 23 17                   0.000828520
   5943165.249 6   4870302.728 6  23925936.478        2621.499
   6509279.760 7   5067763.076 5  21821690.899        2783.634
   4258706.058 6  -8932348.270 5  22765808.809       -2761.103
 -15396720.444 7  -9092723.589 7  21847065.312       -1787.837
  15947955.436 7  -1798624.487 9  20724422.602         563.277
  14666626.406 8   1307265.325 9  21057069.174        1030.363
 92 10 19 20 12 30.0000000  0  6 26  3 28 21 23 17                   0.000831440
   6021998.003 6   4931730.800 6  23940937.473        2634.025
   6593037.963 7   5133029.165 5  21837629.447        2800.036
   4176047.997 6  -8996757.052 5  22750079.298       -2749.345
 -15450183.429 7  -9134382.989 7  21836891.416       -1776.367
  15965009.948 7  -1785335.241 9  20727667.694         573.744
  14697668.853 8   1331454.228 9  21062976.465        1039.141
 92 10 19 20 13  0.0000000  0  6 26  3 28 21 23 17                   0.000834400
   6101209.213 6   4993453.770 6  23956011.258        2646.291
   6677291.569 7   5198681.267 5  21853662.334        2816.431
   4093752.408 6  -9060883.384 5  22734419.429       -2737.292
 -15503305.560 7  -9175776.800 7  21826782.293       -1765.418
  15982382.115 8  -1771798.474 9  20730973.577         584.175
  14728977.157 8   1355850.313 9  21068934.381        1047.882
 92 10 19 20 13 30.0000000  0  6 26  3 28 21 23 17                   0.000837380
   6180774.271 6   5055452.480 6  23971152.398        2657.915
   6762034.060 7   5264714.290 5  21869788.430        2832.851
   4011816.140 6  -9124729.732 5  22718827.511       -2725.349
 -15556107.096 7  -9216920.793 7  21816734.608       -1754.717
  16000062.568 8  -1758021.501 9  20734338.127         594.609
  14760547.021 8   1380450.187 9  21074942.240        1056.793
 92 10 19 20 14  0.0000000  0  6 26  3 28 21 23 17                   0.000840350
   6260684.488 6   5117720.128 6  23986358.497        2669.457
   6847262.571 7   5331126.069 5  21886006.813        2848.885
   3930228.278 6  -9188304.601 5  22703301.882       -2713.815
 -15608599.812 7  -9257824.133 7  21806745.663       -1744.859
  16018061.107 8  -1743996.656 9  20737763.205         605.332
  14792379.567 8   1405254.762 9  21081000.155        1065.223
 92 10 19 20 14 30.0000000  0  6 26  3 28 21 23 17                   0.000843330
   6340947.555 6   5180262.699 6  24001632.427        2681.471
   6932976.931 7   5397916.401 5  21902317.822        2865.126
   3848991.225 6  -9251606.120 5  22687843.014       -2701.943
 -15660792.409 7  -9298493.635 7  21796813.759       -1734.778
  16036390.859 7  -1729713.736 9  20741251.062         616.596
  14824458.921 8   1430251.641 9  21087104.580        1073.355
 92 10 19 20 15  0.0000000  0  6 26  3 28 21 23 17                   0.000846300
   6421570.026 6   5243085.312 6  24016974.383        2693.489
   7019176.127 6   5465084.536 5  21918720.626        2881.181
   3768109.606 7  -9314630.684 5  22672451.708       -2690.139
 -15712691.712 7  -9338934.588 7  21786937.447       -1725.190
  16055061.319 7  -1715165.313 9  20744803.691         628.021
  14856779.065 8   1455436.157 9  21093254.983        1081.254
 92 10 19 20 15 30.0000000  0  6 26  3 28 21 23 17                   0.000849270
   6502564.900 6   5306198.119 6  24032386.883        2706.265
   7105857.562 6   5532628.461 5  21935215.280        2897.319
   3687588.915 6  -9377373.994 5  22657128.948       -2677.821
 -15764299.814 7  -9379148.622 7  21777116.684       -1715.287
  16074077.946 8  -1700347.174 9  20748422.755         639.849
  14889337.605 8   1480806.435 9  21099450.965        1089.241
 92 10 19 20 16  0.0000000  0  6 26  3 28 21 23 17                   0.000852250
   6583950.311 6   5369615.229 6  24047873.923        2719.273
   7193023.570 7   5600549.961 5  21951802.993        2913.401
   3607445.251 6  -9439823.527 5  22641878.024       -2665.066
 -15815607.728 7  -9419128.773 7  21767353.364       -1705.254
  16093458.901 8  -1685245.124 9  20752110.902         652.059
  14922135.294 8   1506363.054 9  21105692.074        1097.124
 92 10 19 20 16 30.0000000  0  6 26  3 28 21 23 17                   0.000855250
   6665726.628 6   5433336.949 6  24063435.419        2732.436
   7280671.316 6   5668846.828 5  21968481.768        2929.588
   3527693.047 6  -9501968.021 5  22626701.672       -2651.800
 -15866605.731 7  -9458867.407 7  21757648.555       -1694.606
  16113203.130 8  -1669860.028 9  20755868.431         664.225
  14955177.195 8   1532109.985 9  21111979.451        1105.900
 92 10 19 20 17  0.0000000  0  6 26  3 28 21 23 17                   0.000858250
   6747894.576 6   5497363.855 6  24079071.428        2745.418
   7368801.409 6   5737519.561 5  21985252.145        2945.646
   3448331.135 6  -9563808.394 5  22611599.453       -2638.872
 -15917294.023 7  -9498364.721 7  21748003.011       -1684.529
  16133309.672 8  -1654192.607 9  20759694.512         676.301
  14988491.730 8   1558069.343 9  21118318.814        1115.174
 92 10 19 20 17 30.0000000  0  6 26  3 28 21 23 17                   0.000861260
   6830446.674 6   5561690.082 6  24094780.402        2758.046
   7457412.571 6   5806567.167 5  22002114.363        2961.502
   3369357.396 6  -9625346.285 5  22596571.219       -2626.106
 -15967676.003 7  -9537623.340 7  21738415.700       -1674.305
  16153778.082 8  -1638243.197 9  20763589.467         688.140
  15022088.378 8   1584248.551 9  21124711.876        1124.571
 92 10 19 20 18  0.0000000  0  6 26  3 28 21 23 17                   0.000864260
   6913370.719 6   5626306.135 6  24110560.257        2770.339
   7546501.947 6   5875987.370 5  22019067.847        2977.541
   3290764.231 6  -9686587.623 5  22581615.004       -2613.417
 -16017746.957 7  -9576639.610 7  21728887.185       -1663.725
  16174591.249 8  -1622025.150 9  20767549.884         699.260
  15055966.774 7   1610647.282 9  21131158.473        1133.966
 92 10 19 20 18 30.0000000  0  6 26  3 28 21 23 17                   0.000867270
   6996663.358 6   5691209.412 6  24126410.533        2782.554
   7636068.423 7   5945779.353 5  22036112.138        2993.370
   3212551.460 6  -9747532.568 5  22566731.666       -2600.816
 -16067499.557 7  -9615407.803 7  21719419.617       -1653.144
  16195725.447 8  -1605556.952 9  20771571.481         709.742
  15090127.646 8   1637266.129 9  21137658.802        1143.383
 92 10 19 20 19  0.0000000  0  6 26  3 28 21 23 17                   0.000870300
   7080319.862 6   5756396.245 5  24142330.242        2794.526
   7726110.144 7   6015941.644 5  22053246.874        3009.229
   3134716.451 6  -9808183.150 5  22551920.221       -2587.924
 -16116933.857 7  -9653927.982 7  21710012.781       -1642.418
  16217174.954 8  -1588843.066 9  20775653.204         720.358
  15124561.518 8   1664097.704 9  21144211.398        1152.067
 92 10 19 20 19 30.0000000  0  6 26  3 28 21 23 17                   0.000873360
   7164337.951 6   5821864.830 5  24158318.786        2806.611
   7816627.150 6   6086474.291 5  22070471.489        3025.024
   3057278.880 6  -9868524.050 5  22537184.071       -2574.602
 -16166037.762 7  -9692190.708 7  21700668.510       -1631.255
  16238948.422 8  -1571876.716 9  20779796.985         731.271
  15159246.594 8   1691125.032 9  21150811.838        1160.117
 92 10 19 20 20  0.0000000  0  6 26  3 28 21 23 17                   0.000876440
   7248716.804 6   5887614.526 5  24174375.657        2818.521
   7907613.878 6   6157372.969 5  22087785.585        3040.590
   2980245.942 6  -9928549.613 5  22522525.229       -2561.023
 -16214811.563 7  -9730196.224 7  21691387.164       -1620.344
  16261052.745 8  -1554652.573 9  20784003.445         742.506
  15194168.697 8   1718337.048 9  21157457.636        1168.020
 92 10 19 20 20 30.0000000  0  6 26  3 28 21 23 17                   0.000879540
   7333455.324 6   5953644.487 5  24190501.238        2830.527
   7999068.281 6   6228636.054 5  22105189.086        3056.148
   2903623.621 6  -9988255.264 6  22507944.674       -2547.113
 -16263257.946 7  -9767946.603 7  21682168.346       -1609.540
  16283507.575 8  -1537155.287 9  20788276.526         754.524
  15229335.674 8   1745739.875 9  21164149.933        1176.381
 92 10 19 20 21  0.0000000  0  6 26  3 28 21 23 17                   0.000882640
   7418547.452 6   6019949.998 5  24206693.545        2842.104
   8090992.055 6   6300264.897 5  22122681.816        3071.806
   2827417.372 6 -10047636.670 6  22493443.013       -2533.353
 -16311380.758 7  -9805444.841 7  21673010.837       -1598.802
  16306327.796 8  -1519373.285 9  20792618.700         766.560
  15264756.859 8   1773340.786 9  21170890.628        1185.071
 92 10 19 20 21 30.0000000  0  6 26  3 28 21 23 17                   0.000885740
   7503982.844 6   6086522.995 5  24222951.160        2853.449
   8183382.351 6   6372257.233 5  22140263.277        3087.209
   2751619.368 7 -10106699.973 6  22479018.939       -2520.109
 -16359183.352 7  -9842693.562 7  21663914.154       -1588.120
  16329503.278 8  -1501314.464 9  20797028.767         778.287
  15300446.865 8   1801151.184 9  21177682.186        1194.264
 92 10 19 20 22  0.0000000  0  6 26  3 28 21 23 17                   0.000888820
   7589756.376 6   6153359.461 5  24239273.022        2864.651
   8276236.540 6   6444611.065 5  22157932.734        3102.796
   2676218.619 6 -10165453.720 6  22464670.363       -2506.752
 -16406663.945 7  -9879691.375 7  21654878.540       -1577.242
  16353019.945 8  -1482989.776 9  20801503.909         789.264
  15336423.675 7   1829185.039 9  21184528.007        1204.286
 92 10 19 20 22 30.0000000  0  6 26  3 28 21 23 17                   0.000891890
   7675861.629 6   6220454.441 5  24255658.285        2875.636
   8369554.753 6   6517326.460 5  22175690.359        3118.193
   2601213.480 7 -10223899.205 6  22450397.313       -2493.512
 -16453822.066 7  -9916437.910 7  21645904.923       -1566.699
  16376849.349 8  -1464421.386 9  20806038.599         799.242
  15372699.634 7   1857452.021 9  21191431.006        1214.009
 92 10 19 20 23  0.0000000  0  6 26  3 28 21 23 17                   0.000894960
   7762288.838 5   6287800.315 5  24272104.983        2886.151
   8463331.418 6   6590399.094 5  22193535.496        3133.397
   2526606.011 7 -10282034.809 5  22436200.042       -2480.314
 -16500665.899 7  -9952939.553 7  21636990.393       -1556.243
  16400969.927 8  -1445626.121 9  20810628.771         808.614
  15409268.981 8   1885947.593 9  21198389.899        1223.911
 92 10 19 20 23 30.0000000  0  6 26  3 28 21 23 17                   0.000898040
   7849042.767 5   6355400.714 5  24288613.022        2897.257
   8557567.322 6   6663829.569 5  22211467.960        3148.678
   2452405.566 7 -10339853.260 5  22422080.316       -2466.513
 -16547189.092 7  -9989191.337 7  21628137.593       -1545.404
  16425379.769 8  -1426605.461 9  20815273.735         818.654
  15446136.025 7   1914675.155 8  21205405.582        1233.672
 92 10 19 20 24  0.0000000  0  6 26  3 28 21 23 17                   0.000901130
   7936129.940 5   6423260.830 5  24305185.423        2908.530
   8652259.975 6   6737615.959 5  22229487.536        3163.967
   2378618.786 7 -10397349.374 5  22408039.086       -2452.578
 -16593391.252 7 -10025192.968 7  21619345.249       -1534.801
  16450084.092 8  -1407355.333 9  20819974.951         828.161
  15483290.510 8   1943626.702 8  21212476.016        1243.351
 92 10 19 20 24 30.0000000  0  6 26  3 28 21 23 17                   0.000904230
   8023549.469 5   6491379.909 5  24321820.935        2919.486
   8747406.056 6   6811755.660 5  22247593.182        3178.991
   2305242.224 7 -10454525.853 6  22394076.103       -2438.892
 -16639280.644 7 -10060950.886 7  21610612.904       -1524.386
  16475078.663 8  -1387879.016 9  20824731.158         838.321
  15520726.984 8   1972797.955 8  21219600.137        1252.432
 92 10 19 20 25  0.0000000  0  6 26  3 28 21 23 17                   0.000907340
   8111294.452 6   6559752.572 5  24338518.594        2930.183
   8843002.466 6   6886246.282 5  22265783.921        3193.881
   2232281.316 7 -10511378.422 6  22380192.207       -2425.258
 -16684850.588 7 -10096459.886 7  21601941.356       -1513.718
  16500382.636 8  -1368161.636 9  20829546.205         848.661
  15558434.508 8   2002180.433 8  21226775.360        1261.192
 92 10 19 20 25 30.0000000  0  6 26  3 28 21 23 17                   0.000910460
   8199362.139 5   6628376.709 5  24355277.440        2941.107
   8939047.174 6   6961086.221 5  22284060.765        3208.949
   2159730.089 7 -10567911.758 6  22366385.715       -2411.430
 -16730095.994 7 -10131715.978 7  21593330.979       -1502.669
  16526010.533 8  -1348191.827 9  20834422.788         860.023
  15596393.497 8   2031758.842 8  21233998.779        1269.480
 92 10 19 20 26  0.0000000  0  6 26  3 28 21 23 17                   0.000913570
   8287760.666 6   6697258.649 5  24372099.266        2952.160
   9035541.330 6   7036276.358 5  22302423.432        3223.878
   2087591.729 7 -10624123.379 6  22352658.217       -2397.561
 -16775019.572 7 -10166721.327 7  21584782.536       -1492.199
  16551969.564 8  -1327964.000 9  20839362.550         870.714
  15634603.033 8   2061532.502 8  21241269.813        1277.952
 92 10 19 20 26 30.0000000  0  6 26  3 28 21 23 17                   0.000916690
   8376484.505 6   6766394.049 5  24388982.995        2962.854
   9132481.392 6   7111813.969 5  22320870.183        3238.604
   2015881.882 7 -10680001.125 6  22339012.214       -2382.966
 -16819631.446 7 -10201483.755 7  21576293.303       -1481.860
  16578261.516 8  -1307476.752 9  20844365.926         882.276
  15673062.057 8   2091500.556 8  21248588.029        1285.956
 92 10 19 20 27  0.0000000  0  6 26  3 28 21 23 17                   0.000919810
   8465528.977 6   6835779.297 5  24405927.570        2973.433
   9229865.287 6   7187697.413 5  22339401.735        3253.384
   1944614.299 7 -10735534.228 6  22325450.660       -2368.321
 -16863931.898 7 -10236003.533 7  21567862.880       -1471.663
  16604899.295 7  -1286720.042 9  20849434.827         893.607
  15711768.818 8   2121661.668 8  21255953.748        1294.484
 92 10 19 20 27 30.0000000  0  6 26  3 28 21 23 17                   0.000922920
   8554903.143 6   6905421.476 5  24422934.852        2984.735
   9327691.184 6   7263925.291 5  22358017.885        3268.134
   1873787.498 7 -10790723.857 6  22311972.994       -2353.445
 -16907935.384 7 -10270291.913 7  21559489.276       -1461.927
  16631878.370 7  -1265697.375 9  20854568.822         904.797
  15750739.550 8   2152028.449 8  21263369.804        1303.771
 92 10 19 20 28  0.0000000  0  6 26  3 28 21 23 17                   0.000926040
   8644611.885 6   6975324.355 5  24440006.546        2995.744
   9425956.487 6   7340495.544 5  22376717.032        3282.800
   1803413.584 7 -10845560.608 6  22298581.015       -2337.919
 -16951649.312 7 -10304354.669 7  21551170.855       -1452.087
  16659179.717 8  -1244423.598 9  20859763.935         915.407
  15789999.145 7   2182620.325 8  21270840.723        1313.553
 92 10 19 20 28 30.0000000  0  6 26  3 28 21 23 17                   0.000929150
   8734638.537 6   7045474.955 5  24457137.806        3005.960
   9524661.959 6   7417408.803 5  22395500.447        3297.343
   1733501.525 7 -10900037.455 6  22285276.886       -2323.007
 -16995058.391 7 -10338179.867 7  21542910.144       -1441.805
  16686802.034 7  -1222899.702 9  20865020.137         925.960
  15829545.810 8   2213435.902 8  21278366.172        1322.843
 92 10 19 20 29  0.0000000  0  6 26  3 28 21 23 17                   0.000932270
   8824972.829 6   7115865.288 5  24474328.014        3016.356
   9623804.914 6   7494662.928 5  22414367.227        3311.917
   1664033.386 7 -10954168.405 6  22272057.446       -2308.167
 -17038158.887 7 -10371764.606 7  21534708.213       -1431.610
  16714735.062 7  -1201133.710 9  20870335.690         936.088
  15869373.746 8   2244470.654 8  21285945.536        1332.246
 92 10 19 20 29 30.0000000  0  6 26  3 28 21 23 17                   0.000935390
   8915618.396 6   7186498.177 5  24491577.226        3026.613
   9723384.736 6   7572257.470 5  22433316.937        3326.400
   1595014.101 7 -11007949.588 6  22258923.408       -2293.062
 -17080947.077 7 -10405106.002 7  21526565.488       -1420.878
  16742971.318 7  -1179131.428 9  20875709.166         946.237
  15909477.610 7   2275720.408 8  21293577.254        1341.204
 92 10 19 20 30  0.0000000  0  6 26  3 28 21 23 17                   0.000938530
   9006560.406 6   7257362.063 5  24508882.693        3036.126
   9823396.877 6   7650188.899 5  22452348.513        3340.815
   1526449.724 7 -11061376.302 6  22245876.139       -2277.966
 -17123409.376 7 -10438193.453 7  21518485.433       -1409.850
  16771511.031 8  -1156892.684 9  20881140.177         956.499
  15949836.682 7   2307169.025 8  21301256.989        1349.236
 92 10 19 20 30 30.0000000  0  6 26  3 28 21 23 17                   0.000941680
   9097788.433 6   7328448.817 5  24526242.883        3045.804
   9923839.188 6   7728455.509 5  22471462.129        3355.077
   1458333.980 7 -11114453.450 6  22232914.423       -2263.130
 -17165542.198 7 -10471024.182 7  21510468.123       -1399.053
  16800360.834 8  -1134412.323 9  20886630.337         966.698
  15990433.982 7   2338803.289 8  21308981.949        1357.302
 92 10 19 20 31  0.0000000  0  6 26  3 28 21 23 17                   0.000944850
   9189318.921 6   7399771.293 5  24543660.895        3056.233
  10024711.088 6   7807056.863 5  22490657.543        3369.512
   1390676.361 7 -11167173.619 6  22220039.477       -2247.260
 -17207352.962 7 -10503603.957 7  21502511.972       -1388.228
  16829513.186 8  -1111696.196 9  20892178.064         976.765
  16031277.949 7   2370629.755 8  21316754.317        1365.736
 92 10 19 20 31 30.0000000  0  6 26  3 28 21 23 17                   0.000948050
   9281160.658 6   7471336.255 5  24561138.047        3066.477
  10126012.380 6   7885992.825 5  22509934.567        3383.629
   1323497.732 7 -11219520.542 6  22207256.147       -2231.325
 -17248830.332 7 -10535923.926 7  21494618.765       -1377.104
  16858962.569 8  -1088748.619 9  20897782.167         986.480
  16072383.060 7   2402659.689 8  21324576.393        1374.600
 92 10 19 20 32  0.0000000  0  6 26  3 28 21 23 17                   0.000951270
   9373310.936 6   7543141.643 5  24578673.887        3076.762
  10227736.727 6   7965258.431 5  22529291.776        3397.749
   1256795.056 7 -11271496.575 6  22194562.793       -2215.528
 -17289987.008 7 -10567994.029 7  21486786.678       -1366.688
  16888695.150 8  -1065580.376 9  20903439.660         995.638
  16113758.490 7   2434900.293 8  21332449.623        1383.860
 92 10 19 20 32 30.0000000  0  6 26  3 28 21 23 17                   0.000954530
   9465768.582 5   7615186.526 5  24596267.769        3086.938
  10329880.716 6   8044851.037 5  22548729.609        3411.667
   1190564.717 7 -11323104.571 6  22181959.330       -2199.766
 -17330829.335 7 -10599819.168 7  21479014.516       -1356.103
  16918695.034 8  -1042203.840 9  20909148.060        1004.289
  16155416.956 7   2467361.430 8  21340376.954        1393.431
 92 10 19 20 33  0.0000000  0  6 26  3 28 21 23 17                   0.000957800
   9558526.809 5   7687465.613 5  24613918.984        3096.848
  10432441.586 6   8124768.455 5  22568246.330        3425.569
   1124804.536 7 -11374346.208 6  22169445.403       -2184.306
 -17371352.573 7 -10631395.670 7  21471303.576       -1345.406
  16948954.644 8  -1018624.919 9  20914906.582        1013.103
  16197363.966 8   2500047.412 8  21348359.577        1403.048
 92 10 19 20 33 30.0000000  0  6 26  3 28 21 23 17                   0.000961080
   9651573.598 5   7759969.595 5  24631624.947        3106.265
  10535419.832 6   8205011.116 5  22587841.923        3439.582
   1059494.321 7 -11425237.241 6  22157017.156       -2169.647
 -17411557.505 7 -10662724.144 7  21463652.692       -1334.908
  16979485.475 8   -994834.667 9  20920716.549        1022.486
  16239602.171 8   2532960.304 8  21356397.206        1412.768
 92 10 19 20 34  0.0000000  0  6 26  3 28 21 23 17                   0.000964350
   9744895.066 5   7832687.567 5  24649383.499        3114.804
  10638814.583 6   8285578.348 5  22607517.600        3453.119
    994619.198 7 -11475789.243 6  22144672.043       -2155.542
 -17451453.540 7 -10693811.921 7  21456060.467       -1324.801
  17010299.892 8   -970823.426 9  20926580.250        1031.836
  16282121.560 7   2566092.291 8  21364488.432        1421.670
 92 10 19 20 34 30.0000000  0  6 26  3 28 21 23 17                   0.000967600
   9838465.893 5   7905599.840 5  24667189.552        3123.268
  10742618.277 6   8366464.218 5  22627271.376        3466.853
    930168.118 7 -11526010.803 6  22132407.553       -2141.261
 -17491034.189 7 -10724653.939 8  21448528.653       -1314.102
  17041405.990 8   -946584.915 9  20932499.452        1041.896
  16324902.086 7   2599427.770 8  21372629.456        1430.351
 92 10 19 20 35  0.0000000  0  6 26  3 28 21 23 17                   0.000970820
   9932291.321 5   7978710.506 5  24685043.781        3131.854
  10846830.894 6   8447668.699 5  22647102.527        3480.427
    866145.713 7 -11575898.331 6  22120224.008       -2126.691
 -17530310.171 7 -10755258.567 8  21441054.836       -1304.303
  17072818.817 8   -922107.395 9  20938477.004        1052.415
  16367937.174 7   2632961.600 8  21380818.898        1438.750
 92 10 19 20 35 30.0000000  0  6 26  3 28 21 23 17                   0.000974000
  10026374.197 5   8052021.800 5  24702946.756        3140.350
  10951448.962 6   8529189.145 5  22667010.355        3493.983
    802576.619 7 -11625432.616 6  22108126.983       -2110.961
 -17569289.946 7 -10785632.362 8  21433636.950       -1294.205
  17104550.705 8   -897381.252 9  20944515.663        1063.113
  16411224.993 7   2666692.376 8  21389055.985        1447.135
 92 10 19 20 36  0.0000000  0  6 26  3 28 21 23 17                   0.000977190
  10120716.029 5   8125534.819 5  24720899.069        3149.056
  11056473.948 6   8611026.648 5  22686996.158        3507.461
    739499.079 7 -11674583.894 6  22096123.484       -2094.238
 -17607959.378 7 -10815764.333 8  21426278.467       -1283.850
  17136603.258 8   -872405.238 9  20950615.202        1073.596
  16454765.268 7   2700619.873 8  21397341.498        1455.529
 92 10 19 20 36 30.0000000  0  6 26  3 28 21 23 17                   0.000980390
  10215331.066 5   8199260.776 5  24738903.547        3158.543
  11161906.079 6   8693181.423 5  22707059.811        3521.037
    676931.757 7 -11723337.591 6  22084217.482       -2076.882
 -17646316.178 8 -10845652.711 8  21418979.349       -1273.412
  17168965.060 7   -847188.254 9  20956773.348        1083.624
  16498562.584 7   2734747.661 8  21405675.919        1464.307
 92 10 19 20 37  0.0000000  0  6 26  3 28 21 23 17                   0.000983610
  10310228.743 5   8273206.956 5  24756961.731        3167.834
  11267742.837 6   8775651.492 5  22727199.567        3534.511
    614893.343 7 -11771679.154 6  22072412.187       -2058.982
 -17684365.785 8 -10875301.720 8  21411738.781       -1262.970
  17201617.020 8   -821745.173 9  20962986.617        1093.145
  16542627.624 7   2769084.065 8  21414061.063        1473.356
 92 10 19 20 37 30.0000000  0  6 26  3 28 21 23 17                   0.000986870
  10405396.116 5   8347363.250 5  24775071.263        3176.716
  11373983.376 6   8858436.192 5  22747417.180        3547.943
    553388.063 7 -11819605.292 6  22060707.819       -2041.530
 -17722082.791 7 -10904691.549 8  21404561.281       -1251.596
  17234546.918 8   -796085.515 9  20969252.737        1102.111
  16586970.330 7   2803636.817 8  21422499.092        1482.831
 92 10 19 20 38  0.0000000  0  6 26  3 28 21 23 17                   0.000990150
  10500831.524 5   8421728.421 5  24793232.214        3185.813
  11480624.964 6   8941533.364 5  22767710.071        3561.256
    492395.256 7 -11867132.093 6  22049101.056       -2024.770
 -17759468.291 8 -10933823.063 8  21397446.984       -1240.770
  17267737.724 7   -770222.554 9  20975568.796        1110.631
  16631597.308 7   2838411.076 8  21430991.454        1492.290
 92 10 19 20 38 30.0000000  0  6 26  3 28 21 23 17                   0.000993450
  10596539.717 5   8496306.170 5  24811444.883        3194.705
  11587666.308 6   9024942.066 5  22788079.422        3574.597
    431900.794 7 -11914270.591 6  22037589.285       -2008.248
 -17796526.586 7 -10962699.614 8  21390395.407       -1229.780
  17301187.688 7   -744157.652 9  20981934.129        1119.396
  16676512.048 7   2873409.570 8  21439538.257        1502.002
 92 10 19 20 39  0.0000000  0  6 26  3 28 21 23 17                   0.000996750
  10692506.790 5   8571085.659 5  24829707.199        3203.365
  11695103.189 6   9108658.962 5  22808523.990        3587.789
    371898.992 7 -11961025.200 6  22026171.337       -1991.854
 -17833262.996 8 -10991325.352 8  21383404.895       -1219.222
  17334912.694 7   -717878.439 9  20988352.047        1129.034
  16721719.602 7   2908636.228 8  21448140.662        1511.908
 92 10 19 20 39 30.0000000  0  6 26  3 28 21 23 17                   0.000000050
  10788735.566 5   8646069.059 5  24848018.870        3211.998
  11802932.706 6   9192681.808 5  22829043.362        3600.683
    312379.514 7 -12007403.965 6  22014845.479       -1975.975
 -17869688.996 7 -11019709.212 8  21376473.356       -1209.368
  17368922.383 7   -691377.384 9  20994823.756        1138.332
  16767227.210 7   2944096.695 8  21456800.795        1521.934
 92 10 19 20 40  0.0010000  0  6 26  3 28 21 23 17                   0.001003330
  10885233.626 5   8721262.259 5  24866382.403        3221.082
  11911155.885 6   9277011.374 5  22849638.326        3613.849
    253342.130 7 -12053407.057 6  22003611.347       -1959.646
 -17905829.817 8 -11047870.851 8  21369596.007       -1199.746
  17403220.380 7   -664651.682 9  21001350.388        1148.314
  16813035.975 7   2979791.839 7  21465518.102        1531.901
 92 10 19 20 40 30.0010000  0  6 26  3 28 21 23 17                   0.001006600
  10981993.928 6   8796659.840 5  24884795.485        3229.665
  12019764.682 6   9361641.490 5  22870305.816        3626.690
    194790.239 7 -12099031.864 6  21992469.172       -1943.571
 -17941680.393 8 -11075806.326 8  21362773.699       -1190.145
  17437814.056 7   -637695.563 9  21007933.590        1158.089
  16859142.418 7   3015718.924 7  21474292.026        1542.080
 92 10 19 20 41  0.0010000  0  6 26  3 28 21 23 17                   0.001009850
  11079010.291 6   8872256.952 5  24903257.733        3238.139
  12128756.781 6   9446570.192 5  22891046.438        3639.321
    136722.146 7 -12144279.677 6  21981418.970       -1927.468
 -17977246.545 8 -11103520.166 8  21356005.495       -1180.779
  17472691.986 8   -610517.951 9  21014570.715        1167.020
  16905554.797 7   3051884.408 7  21483123.895        1552.048
 92 10 19 20 41 30.0010000  0  6 26  3 28 21 23 17                   0.001013110
  11176283.549 6   8948054.246 5  24921768.589        3246.593
  12238130.272 6   9531796.146 5  22911859.470        3652.031
     79142.893 7 -12189146.595 6  21970461.976       -1911.085
 -18012515.291 8 -11131002.272 8  21349294.110       -1170.358
  17507825.137 8   -583141.474 9  21021256.248        1175.232
  16952259.604 7   3088277.743 7  21492011.520        1561.407
 92 10 19 20 42  0.0010000  0  6 26  3 28 21 23 17                   0.001016380
  11273804.506 5   9024044.539 5  24940326.262        3254.833
  12347881.466 6   9617316.382 5  22932744.045        3664.457
     22052.234 7 -12233632.775 6  21959597.866       -1895.000
 -18047466.017 8 -11158236.566 8  21342643.037       -1159.630
  17543206.438 8   -555571.625 9  21027988.826        1183.441
  16999229.766 7   3124877.883 7  21500949.512        1569.741
 92 10 19 20 42 30.0010000  0  6 26  3 28 21 23 17                   0.001019680
  11371571.716 5   9100226.750 5  24958930.812        3263.027
  12458006.219 6   9703127.720 5  22953699.206        3676.991
    -34544.480 7 -12277734.054 6  21948827.653       -1877.858
 -18082087.718 8 -11185214.484 8  21336054.496       -1148.406
  17578825.343 7   -527816.648 9  21034766.645        1191.265
  17046446.526 7   3161670.150 7  21509934.562        1578.090
 92 10 19 20 43  0.0010000  0  6 26  3 28 21 23 17                   0.001023020
  11469589.116 5   9176603.911 5  24977582.947        3271.468
  12568506.440 6   9789231.618 5  22974727.359        3689.436
    -90619.716 7 -12321428.988 6  21938156.961       -1860.347
 -18116373.687 8 -11211930.757 8  21329530.153       -1137.276
  17614679.978 8   -499877.960 9  21041589.471        1199.085
  17093907.538 7   3198652.755 7  21518966.180        1585.879
 92 10 19 20 43 30.0010000  0  6 26  3 28 21 23 17                   0.001026400
  11567861.142 5   9253179.489 5  24996283.553        3279.871
  12679380.609 6   9875626.867 5  22995826.563        3701.886
   -146162.579 7 -12364709.112 6  21927587.267       -1842.494
 -18150319.955 8 -11238382.374 8  21323070.004       -1125.960
  17650785.212 7   -471744.020 9  21048459.914        1208.041
  17141601.127 7   3235816.571 7  21528041.897        1593.787
 92 10 19 20 44  0.0010000  0  6 26  3 28 21 23 17                   0.001029810
  11666379.769 5   9329947.214 5  25015031.125        3287.943
  12790628.079 6   9962313.029 5  23016996.384        3714.304
   -201167.260 7 -12407569.863 6  21917120.405       -1824.483
 -18183937.343 8 -11264577.695 8  21316673.074       -1115.381
  17687169.877 8   -443392.325 9  21055383.829        1217.553
  17189547.776 7   3273177.589 7  21537165.949        1602.641
 92 10 19 20 44 30.0010000  0  6 26  3 28 21 23 17                   0.001033230
  11765136.243 6   9406900.231 5  25033823.975        3295.799
  12902244.822 6  10049286.919 5  23038236.484        3726.682
   -255623.170 7 -12450003.002 6  21906757.905       -1805.890
 -18217243.875 8 -11290530.794 8  21310335.242       -1104.991
  17723841.562 8   -414816.991 9  21062362.340        1227.430
  17237770.212 7   3310753.508 7  21546342.437        1612.373
 92 10 19 20 45  0.0010000  0  6 26  3 28 21 23 17                   0.001036630
  11864116.698 6   9484027.812 5  25052658.743        3302.825
  13014227.233 6  10136545.750 5  23059546.770        3738.716
   -309532.943 7 -12492010.561 6  21896499.169       -1788.065
 -18250249.746 7 -11316249.622 8  21304054.669       -1095.396
  17760815.905 8   -386005.811 9  21069398.460        1237.398
  17286286.565 7   3348558.438 7  21555574.646        1622.052
 92 10 19 20 45 30.0010000  0  6 26  3 28 21 23 17                   0.001040010
  11963298.444 5   9561312.246 5  25071532.389        3309.046
  13126569.600 6  10224085.061 5  23080924.670        3750.621
   -362905.493 7 -12533599.541 6  21886342.531       -1770.323
 -18282962.173 8 -11341739.770 8  21297829.251       -1085.533
  17798089.722 8   -356961.298 9  21076491.509        1247.286
  17335099.625 7   3386594.567 7  21564863.784        1632.088
 92 10 19 20 46  0.0010000  0  6 26  3 28 21 23 17                   0.001043340
  12062659.784 5   9638736.654 5  25090440.261        3315.183
  13239271.408 6  10311904.447 5  23102370.783        3762.626
   -415757.182 7 -12574782.644 6  21876284.884       -1753.102
 -18315379.328 8 -11366999.863 8  21291660.471       -1075.563
  17835645.159 8   -327697.325 9  21083638.281        1256.304
  17384211.258 7   3424863.370 7  21574209.576        1641.913
 92 10 19 20 46 30.0010000  0  6 26  3 28 21 23 17                   0.001046660
  12162211.169 5   9716309.088 5  25109384.202        3321.492
  13352331.701 6  10400003.243 5  23123885.006        3774.531
   -468086.615 7 -12615558.786 6  21866326.904       -1735.682
 -18347488.203 8 -11392019.747 8  21285550.209       -1065.082
  17873469.096 8   -298224.134 9  21090835.801        1265.080
  17433608.756 7   3463354.902 7  21583609.649        1651.255
 92 10 19 20 47  0.0010000  0  6 26  3 28 21 23 17                   0.001049970
  12261951.786 5   9794029.017 5  25128364.325        3327.991
  13465745.738 6  10488377.605 5  23145468.014        3786.316
   -519899.714 7 -12655932.579 6  21856467.124       -1718.475
 -18379284.998 8 -11416796.418 8  21279499.569       -1054.517
  17911542.962 8   -268556.187 9  21098080.983        1273.081
  17483285.062 7   3502063.713 7  21593062.954        1660.516
 92 10 19 20 47 30.0010000  0  6 26  3 28 21 23 17                   0.001053280
  12361901.161 5   9871911.567 5  25147383.747        3335.255
  13579511.861 6  10577026.360 5  23167117.671        3797.868
   -571200.180 7 -12695906.945 6  21846704.890       -1701.556
 -18410758.758 8 -11441321.389 8  21273510.336       -1043.771
  17949847.479 8   -238708.522 9  21105370.035        1280.605
  17533241.335 7   3540990.641 7  21602569.024        1669.710
 92 10 19 20 48  0.0010000  0  6 26  3 28 21 23 17                   0.001056610
  12462076.269 5   9949970.052 5  25166446.431        3343.331
  13693624.708 6  10665945.292 5  23188832.224        3809.492
   -621985.258 7 -12735479.687 6  21837040.920       -1683.961
 -18441916.314 8 -11465599.973 8  21267581.130       -1033.437
  17988379.600 8   -208683.514 9  21112702.590        1288.414
  17583468.491 7   3580128.666 7  21612126.486        1678.769
 92 10 19 20 48 30.0010000  0  6 26  3 28 21 23 17                   0.001059960
  12562494.993 5  10028218.317 5  25185555.355        3351.187
  13808084.025 6  10755134.161 5  23210612.769        3821.034
   -672233.880 7 -12774634.432 6  21827479.052       -1665.980
 -18472770.204 8 -11489641.928 8  21261709.834       -1023.605
  18027150.264 8   -178472.609 9  21120080.692        1296.303
  17633966.912 7   3619478.078 7  21621735.764        1687.897
 92 10 19 20 49  0.0010000  0  6 26  3 28 21 23 17                   0.001063340
  12663147.405 5  10106648.705 5  25204709.165        3358.963
  13922888.035 6  10844591.678 5  23232459.572        3832.378
   -721951.723 7 -12813375.581 6  21818017.840       -1648.431
 -18503341.036 8 -11513463.313 8  21255892.412       -1014.284
  18066148.652 8   -148084.266 9  21127501.825        1303.715
  17684737.729 7   3659039.743 7  21631397.245        1696.767
 92 10 19 20 49 30.0010000  0  6 26  3 28 21 23 17                   0.001066740
  12764023.791 5  10185253.613 5  25223905.806        3366.017
  14038033.753 6  10934315.370 5  23254371.292        3843.774
   -771134.417 7 -12851699.734 6  21808658.780       -1630.278
 -18533631.027 8 -11537065.872 8  21250128.333       -1004.975
  18105377.806 8   -117516.102 9  21134966.727        1311.716
  17735765.867 7   3698801.908 7  21641107.252        1705.053
 92 10 19 20 50  0.0010000  0  5  3 28 21 23 17                      0.001070280
  14153521.669 6  11024305.776 5  23276347.507        3855.086
   -819766.121 7 -12889594.530 6  21799404.747       -1612.004
 -18563640.777 8 -11560450.057 8  21244417.547        -995.692
  18144854.701 8    -86754.901 9  21142478.946        1319.925
  17787042.443 7   3738757.671 7  21650864.869        1713.429
 92 10 19 20 50 30.0010000  0  5  3 28 21 23 17                      0.001073770
  14269351.127 6  11114562.316 5  23298389.161        3866.455
   -867847.324 7 -12927060.375 6  21790255.261       -1593.578
 -18593357.909 8 -11583606.243 8  21238762.090        -985.516
  18184576.635 8    -55802.741 9  21150037.611        1327.992
  17838583.064 7   3778919.185 7  21660672.908        1722.525
 92 10 19 20 51  0.0010000  0  5  3 28 21 23 17                      0.001077260
  14385516.605 6  11205080.658 5  23320495.545        3877.660
   -915380.846 7 -12964099.453 6  21781210.063       -1575.252
 -18622760.522 8 -11606517.364 8  21233166.474        -974.533
  18224540.532 8    -24662.063 9  21157642.249        1336.291
  17890399.828 7   3819295.860 7  21670533.361        1731.895
 92 10 19 20 51 30.0010000  0  5  3 28 21 23 17                      0.001080690
  14502017.042 6  11295859.990 5  23342664.937        3888.802
   -962360.356 7 -13000706.818 6  21772270.022       -1556.830
 -18651824.581 8 -11629164.629 8  21227635.962        -963.197
  18264759.907 8      6677.698 9  21165295.719        1344.897
  17942505.763 7   3859897.870 7  21680449.247        1741.966
 92 10 19 20 52  0.0010000  0  6  3 28 21 23 17 11                   0.001083910
  14618848.647 5  11386897.408 5  23364897.464        3899.579
  -1008797.760 7 -13036891.775 6  21763432.900       -1539.111
 -18680556.762 8 -11651553.312 8  21222168.529        -952.400
  18305228.203 8     38211.433 9  21172996.939        1352.689
  17994921.833 7   3900741.551 7  21690423.971        1752.390
   -417495.80015   -942140.98313  25350772.366       -3560.948
 92 10 19 20 52 30.0010000  0  6  3 28 21 23 17 11                   0.001087340
  14736004.304 5  11478187.309 5  23387191.598        3910.509
  -1054700.171 7 -13072659.850 6  21754697.845       -1520.973
 -18708960.907 8 -11673686.386 8  21216763.699        -941.243
  18345923.977 8     69922.424 9  21180741.238        1360.463
  18047654.611 7   3941832.018 7  21700458.784        1763.023
   -524312.723 5  -1025374.804 3  25330445.280       -3560.322
 92 10 19 20 53  0.0010000  0  6  3 28 21 23 17 11                   0.001090760
  14853484.123 5  11569729.776 5  23409547.131        3921.351
  -1100061.227 7 -13108006.091 6  21746065.882       -1502.865
 -18737036.641 8 -11695563.559 8  21211421.168        -930.493
  18386855.848 8    101817.378 9  21188530.376        1368.296
  18100698.864 7   3983165.183 7  21710552.657        1773.157
   -631115.972 5  -1108597.920 3  25310121.418       -3559.823
 92 10 19 20 53 30.0010000  0  6  3 28 21 23 17 11                   0.001094190
  14971284.084 5  11661521.709 5  23431964.308        3931.825
  -1144871.032 7 -13142922.793 7  21737538.585       -1484.231
 -18764803.304 8 -11717199.881 8  21206137.457        -920.648
  18428016.133 8    133890.330 9  21196363.294        1375.781
  18154035.607 7   4024726.260 7  21720702.220        1782.603
   -737904.501 5  -1191809.634 3  25289799.904       -3559.376
 92 10 19 20 54  0.0010000  0  6  3 28 21 23 17 11                   0.001097620
  15089400.464 5  11753560.240 5  23454441.658        3942.294
  -1189106.552 7 -13177391.998 7  21729121.152       -1464.698
 -18792275.896 8 -11738607.082 8  21200909.317        -910.803
  18469407.021 8    166142.978 9  21204239.342        1383.627
  18207651.552 7   4066504.905 7  21730904.668        1791.635
   -844676.941 5  -1275008.792 4  25269481.464       -3558.869
 92 10 19 20 54 30.0010000  0  6  3 28 21 23 17 11                   0.001101050
  15207829.330 6  11845842.199 5  23476977.517        3952.842
  -1232744.781 7 -13211395.784 7  21720817.582       -1444.566
 -18819451.544 8 -11759782.877 8  21195737.965        -900.989
  18511044.830 8    198588.015 9  21212162.464        1392.250
  18261536.204 7   4108492.933 7  21741158.140        1800.646
   -951432.034 5  -1358194.369 4  25249165.948       -3558.067
 92 10 19 20 55  0.0010000  0  6  3 28 21 23 17 11                   0.001104480
  15326573.366 6  11938369.796 5  23499573.960        3963.310
  -1275780.959 7 -13244930.434 7  21712628.270       -1424.436
 -18846338.125 8 -11780733.440 8  21190621.878        -891.565
  18552941.699 8    231234.935 9  21220135.516        1400.832
  18315685.098 7   4150686.874 7  21751462.336        1809.331
  -1058161.840 5  -1441360.352 4  25228855.767       -3557.214
 92 10 19 20 55 30.0010000  0  6  3 28 21 23 17 11                   0.001107920
  15445626.534 6  12031138.286 5  23522229.907        3973.460
  -1318221.409 7 -13278000.892 7  21704552.113       -1404.897
 -18872955.843 8 -11801474.485 8  21185556.705        -882.812
  18595091.374 8    264078.823 9  21228156.473        1409.227
  18370091.741 7   4193081.648 7  21761815.669        1817.964
  -1164867.410 5  -1524507.374 4  25208550.392       -3556.469
 92 10 19 20 56  0.0010000  0  6  3 28 21 23 17 11                   0.001111360
  15564985.568 6  12124145.076 5  23544943.614        3983.646
  -1360082.457 7 -13310619.857 7  21696585.796       -1385.990
 -18899301.790 8 -11822003.769 8  21180542.965        -873.510
  18637493.782 8    297119.664 9  21236225.217        1417.560
  18424768.479 7   4235686.888 7  21772220.714        1827.144
  -1271546.874 5  -1607634.041 4  25188249.910       -3555.432
 92 10 19 20 56 30.0010000  0  6  3 28 21 23 17 11                   0.001114800
  15684650.766 6  12217390.445 5  23567714.701        3993.779
  -1401389.727 7 -13342807.343 7  21688725.278       -1368.038
 -18925361.924 8 -11842310.330 8  21175584.068        -863.913
  18680138.810 8    330349.544 9  21244340.380        1425.219
  18479722.210 7   4278507.970 7  21782678.026        1836.223
  -1378194.680 5  -1690736.044 4  25167955.287       -3554.330
 92 10 19 20 57  0.0010000  0  6  3 28 21 23 17 11                   0.001118250
  15804615.082 6  12310868.907 5  23590542.999        4003.842
  -1442165.867 7 -13374580.922 7  21680965.462       -1350.131
 -18951126.982 8 -11862386.986 8  21170681.053        -853.533
  18723006.812 8    363753.170 9  21252497.852        1432.663
  18534940.793 7   4321535.431 7  21793185.734        1845.240
  -1484812.476 5  -1773814.666 4  25147666.747       -3553.296
 92 10 19 20 57 30.0010000  0  6  3 28 21 23 17 11                   0.001121700
  15924876.491 6  12404578.859 5  23613428.272        4013.488
  -1482400.243 7 -13405932.367 7  21673309.201       -1331.991
 -18976575.188 8 -11882216.709 8  21165838.564        -842.770
  18766089.900 7    397324.410 9  21260696.137        1439.529
  18590433.219 7   4364776.270 7  21803745.801        1854.478
  -1591397.281 5  -1856867.592 4  25127384.756       -3552.253
 92 10 19 20 58  0.0010000  0  6  3 28 21 23 17 11                   0.001125140
  16045428.808 6  12498515.492 5  23636369.052        4023.206
  -1522084.335 7 -13436855.017 7  21665757.347       -1313.443
 -19001694.716 8 -11901790.341 8  21161058.236        -831.807
  18809374.440 7    431052.615 9  21268932.566        1446.315
  18646203.782 7   4408233.837 7  21814358.843        1863.564
  -1697950.087 5  -1939895.617 4  25107108.634       -3551.015
 92 10 19 20 58 30.0010000  0  6  3 28 21 23 17 11                   0.001128590
  16166275.746 6  12592681.684 5  23659366.102        4033.027
  -1561199.320 7 -13467334.216 7  21658313.902       -1294.098
 -19026488.473 8 -11921110.133 8  21156340.049        -821.177
  18852867.683 8    464943.439 9  21277209.024        1453.258
  18702245.104 7   4451902.387 7  21825022.842        1872.619
  -1804461.634 5  -2022891.437 5  25086839.922       -3549.567
 92 10 19 20 59  0.0010000  0  6  3 28 21 23 17 11                   0.001132040
  16287417.499 6  12687077.610 5  23682418.782        4042.800
  -1599721.618 7 -13497351.566 7  21650983.367       -1273.943
 -19050971.097 8 -11940187.473 8  21151681.006        -811.134
  18896570.470 8    498997.546 9  21285525.538        1460.237
  18758563.242 7   4495786.641 7  21835739.662        1882.012
  -1910926.428 5  -2105850.833 5  25066580.527       -3547.968
 92 10 19 20 59 30.0010000  0  6  3 28 21 23 17 11                   0.001135500
  16408846.254 5  12781697.182 5  23705526.484        4052.350
  -1637637.595 7 -13526896.455 7  21643768.182       -1253.778
 -19075170.948 8 -11959044.489 8  21147076.193        -802.063
  18940474.354 7    533208.354 9  21293880.093        1466.941
  18815160.054 7   4539888.016 7  21846509.656        1891.250
  -2017347.115 5  -2188775.894 5  25046329.473       -3546.543
 92 10 19 21  0  0.0010000  0  6  3 28 21 23 17 11                   0.001138970
  16530560.346 5  12876539.059 5  23728687.494        4061.753
  -1674955.534 7 -13555975.358 7  21636666.777       -1234.255
 -19099099.690 8 -11977690.236 8  21142523.058        -793.289
  18984591.690 8    567585.484 9  21302275.550        1474.212
  18872033.797 7   4584205.180 7  21857332.303        1900.228
  -2123720.212 5  -2271663.888 5  25026086.902       -3544.889
 92 10 19 21  0 30.0010000  0  6  3 28 21 23 17 11                   0.001142440
  16652557.791 5  12971601.739 5  23751902.400        4071.285
  -1711689.516 7 -13584599.214 7  21629676.616       -1214.638
 -19122756.870 8 -11996124.392 8  21138021.142        -783.788
  19028928.936 8    602133.959 9  21310712.820        1481.595
  18929183.726 7   4628737.565 7  21868207.564        1909.882
  -2230041.909 5  -2354511.708 5  25005854.485       -3543.084
 92 10 19 21  1  0.0010000  0  6  3 28 21 23 17 11                   0.001145920
  16774839.024 5  13066885.549 5  23775172.090        4080.545
  -1747837.711 7 -13612766.617 7  21622797.908       -1195.388
 -19146121.026 8 -12014330.192 8  21133574.462        -773.868
  19073490.705 8    636857.405 9  21319192.669        1489.088
  18986627.721 7   4673499.101 7  21879138.977        1919.657
  -2336306.663 5  -2437315.259 5  24985632.817       -3541.299
 92 10 19 21  1 30.0010000  0  6  3 28 21 23 17 11                   0.001149400
  16897395.646 5  13162383.934 5  23798493.877        4089.729
  -1783414.782 7 -13640488.991 7  21616027.804       -1176.497
 -19169184.608 8 -12032301.789 8  21129185.559        -763.572
  19118274.056 8    671753.498 8  21327714.341        1496.593
  19044365.381 7   4718489.447 7  21890126.471        1929.591
  -2442517.382 5  -2520076.718 5  24965421.250       -3539.388
 92 10 19 21  2  0.0010000  0  6  3 28 21 23 17 11                   0.001152880
  17020228.332 5  13258097.495 5  23821867.933        4098.861
  -1818426.705 7 -13667770.999 7  21609365.546       -1157.599
 -19191932.794 8 -12050027.633 8  21124856.597        -753.012
  19163287.429 8    706828.845 8  21336279.920        1504.111
  19102403.131 7   4763713.657 7  21901170.515        1939.525
  -2548668.029 5  -2602791.343 5  24945221.105       -3537.392
 92 10 19 21  2 30.0010000  0  6  3 28 21 23 17 11                   0.001156360
  17143334.342 5  13354023.991 5  23845295.246        4108.025
  -1852860.768 7 -13694602.716 7  21602813.104       -1137.864
 -19214360.539 8 -12067503.793 8  21120588.691        -742.179
  19208515.306 8    742071.325 8  21344886.373        1511.058
  19160732.117 7   4809164.763 7  21912269.581        1949.060
  -2654756.113 5  -2685457.209 5  24925033.247       -3535.154
 92 10 19 21  3  0.0010000  0  6  3 28 21 23 17 11                   0.001159840
  17266714.229 5  13450163.889 5  23868773.801        4117.056
  -1886697.573 7 -13720969.040 7  21596374.101       -1118.138
 -19236466.052 8 -12084728.856 8  21116382.461        -731.811
  19253950.253 8    777475.166 8  21353532.606        1517.716
  19219344.266 7   4854836.532 7  21923423.119        1958.215
  -2760775.400 5  -2768069.502 5  24904858.192       -3532.814
 92 10 19 21  3 30.0010000  0  6  3 28 21 23 17 11                   0.001163330
  17390362.374 6  13546512.820 5  23892303.564        4126.022
  -1919942.938 7 -13746874.506 7  21590047.691       -1098.137
 -19258268.598 8 -12101717.837 9  21112233.395        -721.808
  19299574.617 8    813026.591 9  21362214.647        1523.966
  19278221.073 7   4900714.539 7  21934627.193        1966.830
  -2866725.984 5  -2850628.208 5  24884696.631       -3530.496
 92 10 19 21  4  0.0010000  0  6  3 28 21 23 17 11                   0.001166820
  17514275.384 6  13643068.148 5  23915883.728        4134.655
  -1952586.877 7 -13772311.334 7  21583835.511       -1078.119
 -19279776.983 8 -12118477.587 9  21108140.649        -712.123
  19345388.466 8    848725.663 9  21370932.541        1530.145
  19337348.476 7   4946787.787 7  21945878.624        1974.954
  -2972605.979 5  -2933131.911 5  24864548.085       -3528.113
 92 10 19 21  4 30.0010000  0  6  3 28 21 23 17 11                   0.001170320
  17638448.808 6  13739826.371 5  23939513.709        4143.339
  -1984633.035 7 -13797282.346 7  21577736.924       -1058.359
 -19300999.375 8 -12135014.496 9  21104102.015        -702.757
  19391387.396 8    884568.980 9  21379686.029        1536.605
  19396718.791 7   4993050.343 6  21957176.453        1983.175
  -3078414.363 5  -3015579.839 5  24844413.529       -3525.657
 92 10 19 21  5  0.0010000  0  6  3 28 21 23 17 11                   0.001173820
  17762877.696 6  13836783.648 5  23963191.557        4151.824
  -2016095.519 7 -13821798.557 7  21571749.817       -1038.986
 -19321946.530 8 -12151336.945 9  21100115.705        -693.590
  19437588.797 8    920570.048 9  21388478.065        1543.718
  19456347.672 7   5039514.339 6  21968523.517        1992.295
  -3184150.649 5  -3097971.579 5  24824292.801       -3523.183
 92 10 19 21  5 30.0010000  0  6  3 28 21 23 17 11                   0.001177330
  17887560.510 6  13933938.838 5  23986918.490        4160.310
  -2046966.739 7 -13845854.052 7  21565874.947       -1018.799
 -19342616.604 8 -12167443.459 9  21096182.536        -684.196
  19484005.957 8    956739.247 8  21397310.850        1550.974
  19516257.280 7   5086197.104 6  21979924.185        2001.989
  -3289810.442 6  -3180303.742 5  24804186.398       -3520.603
 92 10 19 21  6  0.0010000  0  6  3 28 21 23 17 11                   0.001180830
  18012494.674 6  14031289.849 5  24010693.593        4168.493
  -2077231.561 7 -13869437.017 7  21560115.641        -998.838
 -19362999.760 8 -12183326.432 9  21092303.863        -674.633
  19530645.694 8    993081.883 8  21406186.096        1558.312
  19576470.975 7   5133116.807 6  21991382.761        2012.356
  -3395391.246 6  -3262574.322 5  24784094.668       -3517.940
 92 10 19 21  6 30.0010000  0  6  3 28 21 23 17 11                   0.001184340
  18137679.042 6  14128835.857 5  24034515.653        4176.774
  -2106893.029 7 -13892549.836 7  21554471.403        -978.650
 -19383096.122 8 -12198985.911 9  21088479.889        -665.244
  19577503.458 8   1029594.420 8  21415102.911        1565.462
  19637005.120 7   5180286.217 6  22002902.455        2023.077
  -3500888.402 6  -3344779.791 5  24764018.935       -3515.161
 92 10 19 21  7  0.0010000  0  6  3 28 21 23 17 11                   0.001187850
  18263107.222 5  14226571.809 5  24058383.128        4184.811
  -2135944.177 7 -13915187.074 7  21548943.367        -958.006
 -19402908.543 8 -12214424.136 9  21084709.809        -655.640
  19624566.275 8   1066266.725 8  21424058.853        1571.905
  19697857.909 7   5227703.933 6  22014482.033        2033.548
  -3606302.612 6  -3426920.597 5  24743959.104       -3512.445
 92 10 19 21  7 30.0010000  0  6  3 28 21 23 17 11                   0.001191350
  18388776.993 6  14324496.022 5  24082296.463        4192.642
  -2164373.873 7 -13937340.107 7  21543533.382        -937.540
 -19422432.988 8 -12229637.982 9  21080994.582        -646.287
  19671815.465 7   1103084.271 8  21433050.099        1577.723
  19759015.209 6   5275358.920 6  22026119.854        2043.233
  -3711630.538 5  -3508994.169 5  24723915.328       -3509.637
 92 10 19 21  8  0.0010000  0  6  3 28 21 23 17 11                   0.001194860
  18514676.387 5  14422599.201 5  24106254.866        4200.140
  -2192204.901 7 -13959026.590 7  21538237.401        -918.231
 -19441686.975 8 -12244641.056 9  21077330.497        -637.562
  19719235.738 8   1140035.111 8  21442073.750        1583.416
  19820444.878 7   5323226.128 6  22037809.393        2051.539
  -3816878.725 5  -3591005.589 5  24703887.355       -3507.100
 92 10 19 21  8 30.0010000  0  6  3 28 21 23 17 11                   0.001198360
  18640783.612 5  14520864.271 5  24130252.972        4206.740
  -2219470.323 7 -13980272.363 7  21533048.921        -899.564
 -19460689.503 8 -12259448.201 9  21073714.432        -629.291
  19766816.662 8   1177111.116 8  21451127.973        1588.549
  19882096.462 7   5371266.273 6  22049541.450        2058.446
  -3922063.175 5  -3672967.315 5  24683870.823       -3505.201
 92 10 19 21  9  0.0010000  0  6  3 28 21 23 17 11                   0.001201820
  18767086.984 5  14619282.152 5  24154287.730        4213.368
  -2246174.489 7 -14001080.796 7  21527967.147        -880.597
 -19479430.912 8 -12274051.881 9  21070148.000        -620.021
  19814555.503 7   1214310.207 8  21460212.265        1594.069
  19943954.692 6   5419467.450 6  22061312.930        2065.676
  -4027190.107 5  -3754884.277 5  24663865.019       -3503.132
 92 10 19 21  9 30.0010000  0  6  3 28 21 23 17 11                   0.001205270
  18893590.794 5  14717856.289 5  24178359.992        4220.103
  -2272310.979 7 -14021446.899 7  21522993.689        -861.764
 -19497900.056 8 -12288443.400 9  21066633.186        -611.159
  19862458.734 8   1251637.395 8  21469328.303        1599.484
  20006031.016 7   5467838.565 6  22073125.782        2073.030
  -4132249.492 5  -3836748.536 5  24643873.093       -3500.747
 92 10 19 21 10  0.0010000  0  6  3 28 21 23 17 11                   0.001208700
  19020298.870 5  14816589.566 5  24202471.098        4227.020
  -2297877.958 7 -14041369.215 7  21518128.500        -842.658
 -19516092.138 8 -12302619.021 9  21063171.202        -601.585
  19910534.776 8   1289099.211 8  21478477.119        1605.588
  20068343.081 7   5516393.374 6  22084983.355        2081.228
  -4237231.823 5  -3918552.796 5  24623895.421       -3497.997
 92 10 19 21 10 30.0010000  0  6  3 28 21 23 17 11                   0.001212120
  19147223.372 5  14915491.432 5  24226624.471        4234.514
  -2322853.058 7 -14060830.326 7  21513375.910        -822.205
 -19533987.052 8 -12316563.103 9  21059765.736        -591.522
  19958791.868 7   1326702.135 8  21487660.152        1611.504
  20130919.654 7   5565154.276 6  22096891.121        2090.795
  -4342119.345 5  -4000283.183 5  24603935.820       -3494.465
